<?xml version="1.0" encoding="UTF-8" standalone="no" ?>
<gpx xmlns="http://www.topografix.com/GPX/1/1" xmlns:xsi="http://www.w3.org/2001/XMLSchema-instance" xsi:schemaLocation="http://www.topografix.com/GPX/1/1 http://www.topografix.com/GPX/1/1/gpx.xsd" version="1.1" creator="VisuGPX - https://www.visugpx.com">
  <metadata>
    <name>Moulin55</name>
  </metadata>
  <trk>
    <name><![CDATA[Mont ST Aubert Thimougie robin50]]></name>
    <trkseg>
      <trkpt lat="50.50335" lon="3.46236">
        <ele>20.505034</ele>
        <time>2019-09-17T11:29:22.000Z</time>
      </trkpt>
      <trkpt lat="50.50335" lon="3.46236">
        <ele>20.505034</ele>
        <time>2019-09-17T11:29:22.052Z</time>
      </trkpt>
      <trkpt lat="50.50345" lon="3.46155">
        <ele>20.505034</ele>
        <time>2019-09-17T11:29:30.440Z</time>
      </trkpt>
      <trkpt lat="50.50361" lon="3.46074">
        <ele>20.430073</ele>
        <time>2019-09-17T11:29:38.846Z</time>
      </trkpt>
      <trkpt lat="50.5041" lon="3.45851">
        <ele>19.730313</ele>
        <time>2019-09-17T11:30:02.933Z</time>
      </trkpt>
      <trkpt lat="50.50424" lon="3.45772">
        <ele>19.474961</ele>
        <time>2019-09-17T11:30:11.405Z</time>
      </trkpt>
      <trkpt lat="50.50433" lon="3.4572">
        <ele>19.302869</ele>
        <time>2019-09-17T11:30:17.036Z</time>
      </trkpt>
      <trkpt lat="50.50436" lon="3.45642">
        <ele>19.056693</ele>
        <time>2019-09-17T11:30:25.095Z</time>
      </trkpt>
      <trkpt lat="50.50437" lon="3.45631">
        <ele>19.021688</ele>
        <time>2019-09-17T11:30:26.071Z</time>
      </trkpt>
      <trkpt lat="50.5044" lon="3.45588">
        <ele>18.883273</ele>
        <time>2019-09-17T11:30:31.002Z</time>
      </trkpt>
      <trkpt lat="50.50441" lon="3.45573">
        <ele>18.834508</ele>
        <time>2019-09-17T11:30:32.385Z</time>
      </trkpt>
      <trkpt lat="50.50441" lon="3.45568">
        <ele>18.818215</ele>
        <time>2019-09-17T11:30:32.916Z</time>
      </trkpt>
      <trkpt lat="50.50443" lon="3.45552">
        <ele>18.762556</ele>
        <time>2019-09-17T11:30:34.542Z</time>
      </trkpt>
      <trkpt lat="50.50448" lon="3.45508">
        <ele>18.506614</ele>
        <time>2019-09-17T11:30:38.655Z</time>
      </trkpt>
      <trkpt lat="50.50447" lon="3.4549">
        <ele>18.398806</ele>
        <time>2019-09-17T11:30:40.377Z</time>
      </trkpt>
      <trkpt lat="50.50444" lon="3.45482">
        <ele>18.343782</ele>
        <time>2019-09-17T11:30:41.347Z</time>
      </trkpt>
      <trkpt lat="50.50448" lon="3.4547">
        <ele>18.265266</ele>
        <time>2019-09-17T11:30:42.525Z</time>
      </trkpt>
      <trkpt lat="50.50458" lon="3.45443">
        <ele>18.08223</ele>
        <time>2019-09-17T11:30:45.466Z</time>
      </trkpt>
      <trkpt lat="50.50468" lon="3.45372">
        <ele>17.659947</ele>
        <time>2019-09-17T11:30:52.291Z</time>
      </trkpt>
      <trkpt lat="50.50471" lon="3.45343">
        <ele>17.488313</ele>
        <time>2019-09-17T11:30:55.128Z</time>
      </trkpt>
      <trkpt lat="50.50473" lon="3.45332">
        <ele>17.42629</ele>
        <time>2019-09-17T11:30:56.093Z</time>
      </trkpt>
      <trkpt lat="50.50477" lon="3.45312">
        <ele>17.300933</ele>
        <time>2019-09-17T11:30:58.205Z</time>
      </trkpt>
      <trkpt lat="50.50513" lon="3.45201">
        <ele>16.749196</ele>
        <time>2019-09-17T11:31:10.106Z</time>
      </trkpt>
      <trkpt lat="50.50531" lon="3.45152">
        <ele>16.522226</ele>
        <time>2019-09-17T11:31:15.589Z</time>
      </trkpt>
      <trkpt lat="50.50539" lon="3.45133">
        <ele>16.429432</ele>
        <time>2019-09-17T11:31:17.761Z</time>
      </trkpt>
      <trkpt lat="50.50551" lon="3.45111">
        <ele>16.314982</ele>
        <time>2019-09-17T11:31:20.687Z</time>
      </trkpt>
      <trkpt lat="50.50599" lon="3.45026">
        <ele>15.962633</ele>
        <time>2019-09-17T11:31:32.660Z</time>
      </trkpt>
      <trkpt lat="50.50652" lon="3.44916">
        <ele>15.834823</ele>
        <time>2019-09-17T11:31:48.075Z</time>
      </trkpt>
      <trkpt lat="50.50661" lon="3.44894">
        <ele>15.810949</ele>
        <time>2019-09-17T11:31:50.794Z</time>
      </trkpt>
      <trkpt lat="50.50673" lon="3.44871">
        <ele>15.782971</ele>
        <time>2019-09-17T11:31:54.274Z</time>
      </trkpt>
      <trkpt lat="50.50707" lon="3.44823">
        <ele>15.7248</ele>
        <time>2019-09-17T11:32:02.046Z</time>
      </trkpt>
      <trkpt lat="50.51095" lon="3.44486">
        <ele>15.523336</ele>
        <time>2019-09-17T11:33:19.339Z</time>
      </trkpt>
      <trkpt lat="50.51116" lon="3.44468">
        <ele>15.538727</ele>
        <time>2019-09-17T11:33:23.912Z</time>
      </trkpt>
      <trkpt lat="50.51187" lon="3.44406">
        <ele>15.652357</ele>
        <time>2019-09-17T11:33:39.071Z</time>
      </trkpt>
      <trkpt lat="50.5119" lon="3.44403">
        <ele>15.669168</ele>
        <time>2019-09-17T11:33:40.023Z</time>
      </trkpt>
      <trkpt lat="50.51322" lon="3.4435">
        <ele>16.193288</ele>
        <time>2019-09-17T11:34:06.896Z</time>
      </trkpt>
      <trkpt lat="50.5134" lon="3.44349">
        <ele>16.265338</ele>
        <time>2019-09-17T11:34:10.730Z</time>
      </trkpt>
      <trkpt lat="50.51346" lon="3.4435">
        <ele>16.280855</ele>
        <time>2019-09-17T11:34:11.865Z</time>
      </trkpt>
      <trkpt lat="50.5139" lon="3.44363">
        <ele>16.36819</ele>
        <time>2019-09-17T11:34:20.610Z</time>
      </trkpt>
      <trkpt lat="50.51573" lon="3.44428">
        <ele>16.471433</ele>
        <time>2019-09-17T11:34:55.226Z</time>
      </trkpt>
      <trkpt lat="50.51599" lon="3.44445">
        <ele>16.394836</ele>
        <time>2019-09-17T11:34:59.766Z</time>
      </trkpt>
      <trkpt lat="50.51714" lon="3.44519">
        <ele>16.05743</ele>
        <time>2019-09-17T11:35:19.537Z</time>
      </trkpt>
      <trkpt lat="50.51727" lon="3.44527">
        <ele>16.021638</ele>
        <time>2019-09-17T11:35:21.626Z</time>
      </trkpt>
      <trkpt lat="50.51818" lon="3.44585">
        <ele>15.761041</ele>
        <time>2019-09-17T11:35:37.730Z</time>
      </trkpt>
      <trkpt lat="50.51845" lon="3.44602">
        <ele>15.685263</ele>
        <time>2019-09-17T11:35:42.919Z</time>
      </trkpt>
      <trkpt lat="50.5192" lon="3.44671">
        <ele>15.950889</ele>
        <time>2019-09-17T11:35:59.454Z</time>
      </trkpt>
      <trkpt lat="50.51925" lon="3.44675">
        <ele>15.973048</ele>
        <time>2019-09-17T11:36:00.668Z</time>
      </trkpt>
      <trkpt lat="50.51933" lon="3.44684">
        <ele>16.0121</ele>
        <time>2019-09-17T11:36:03.061Z</time>
      </trkpt>
      <trkpt lat="50.51953" lon="3.44702">
        <ele>16.098185</ele>
        <time>2019-09-17T11:36:07.315Z</time>
      </trkpt>
      <trkpt lat="50.51991" lon="3.44724">
        <ele>16.254691</ele>
        <time>2019-09-17T11:36:15.646Z</time>
      </trkpt>
      <trkpt lat="50.52029" lon="3.44725">
        <ele>16.381065</ele>
        <time>2019-09-17T11:36:23.348Z</time>
      </trkpt>
      <trkpt lat="50.52034" lon="3.44722">
        <ele>16.393202</ele>
        <time>2019-09-17T11:36:24.601Z</time>
      </trkpt>
      <trkpt lat="50.52072" lon="3.44707">
        <ele>16.4896</ele>
        <time>2019-09-17T11:36:32.525Z</time>
      </trkpt>
      <trkpt lat="50.52089" lon="3.44693">
        <ele>16.53809</ele>
        <time>2019-09-17T11:36:36.184Z</time>
      </trkpt>
      <trkpt lat="50.52092" lon="3.44691">
        <ele>16.544647</ele>
        <time>2019-09-17T11:36:36.686Z</time>
      </trkpt>
      <trkpt lat="50.52105" lon="3.44679">
        <ele>16.581735</ele>
        <time>2019-09-17T11:36:39.657Z</time>
      </trkpt>
      <trkpt lat="50.52116" lon="3.44669">
        <ele>16.614443</ele>
        <time>2019-09-17T11:36:42.095Z</time>
      </trkpt>
      <trkpt lat="50.52143" lon="3.44666">
        <ele>16.679883</ele>
        <time>2019-09-17T11:36:47.103Z</time>
      </trkpt>
      <trkpt lat="50.52154" lon="3.44675">
        <ele>16.711195</ele>
        <time>2019-09-17T11:36:49.340Z</time>
      </trkpt>
      <trkpt lat="50.52189" lon="3.44712">
        <ele>16.779826</ele>
        <time>2019-09-17T11:36:56.746Z</time>
      </trkpt>
      <trkpt lat="50.52222" lon="3.44745">
        <ele>16.741854</ele>
        <time>2019-09-17T11:37:03.449Z</time>
      </trkpt>
      <trkpt lat="50.52251" lon="3.448">
        <ele>16.6981</ele>
        <time>2019-09-17T11:37:11.263Z</time>
      </trkpt>
      <trkpt lat="50.52281" lon="3.44844">
        <ele>16.658326</ele>
        <time>2019-09-17T11:37:18.353Z</time>
      </trkpt>
      <trkpt lat="50.52311" lon="3.44887">
        <ele>16.619685</ele>
        <time>2019-09-17T11:37:25.362Z</time>
      </trkpt>
      <trkpt lat="50.52348" lon="3.44962">
        <ele>16.693021</ele>
        <time>2019-09-17T11:37:36.228Z</time>
      </trkpt>
      <trkpt lat="50.52354" lon="3.44967">
        <ele>16.702827</ele>
        <time>2019-09-17T11:37:37.527Z</time>
      </trkpt>
      <trkpt lat="50.52364" lon="3.44971">
        <ele>16.716399</ele>
        <time>2019-09-17T11:37:39.412Z</time>
      </trkpt>
      <trkpt lat="50.52397" lon="3.4497">
        <ele>16.760918</ele>
        <time>2019-09-17T11:37:45.699Z</time>
      </trkpt>
      <trkpt lat="50.52465" lon="3.44966">
        <ele>16.852155</ele>
        <time>2019-09-17T11:37:58.433Z</time>
      </trkpt>
      <trkpt lat="50.52496" lon="3.44968">
        <ele>16.899207</ele>
        <time>2019-09-17T11:38:04.325Z</time>
      </trkpt>
      <trkpt lat="50.52556" lon="3.44992">
        <ele>16.993153</ele>
        <time>2019-09-17T11:38:15.844Z</time>
      </trkpt>
      <trkpt lat="50.52569" lon="3.45007">
        <ele>17.018571</ele>
        <time>2019-09-17T11:38:18.714Z</time>
      </trkpt>
      <trkpt lat="50.52594" lon="3.45088">
        <ele>17.105545</ele>
        <time>2019-09-17T11:38:29.153Z</time>
      </trkpt>
      <trkpt lat="50.52608" lon="3.45115">
        <ele>17.151032</ele>
        <time>2019-09-17T11:38:33.032Z</time>
      </trkpt>
      <trkpt lat="50.52695" lon="3.45217">
        <ele>17.690389</ele>
        <time>2019-09-17T11:38:54.045Z</time>
      </trkpt>
      <trkpt lat="50.52698" lon="3.45225">
        <ele>17.722187</ele>
        <time>2019-09-17T11:38:55.446Z</time>
      </trkpt>
      <trkpt lat="50.52707" lon="3.45261">
        <ele>17.843382</ele>
        <time>2019-09-17T11:39:00.551Z</time>
      </trkpt>
      <trkpt lat="50.52719" lon="3.45338">
        <ele>18.142213</ele>
        <time>2019-09-17T11:39:11.572Z</time>
      </trkpt>
      <trkpt lat="50.52726" lon="3.45386">
        <ele>18.416506</ele>
        <time>2019-09-17T11:39:18.591Z</time>
      </trkpt>
      <trkpt lat="50.52741" lon="3.45438">
        <ele>18.734255</ele>
        <time>2019-09-17T11:39:26.894Z</time>
      </trkpt>
      <trkpt lat="50.52758" lon="3.45546">
        <ele>19.351322</ele>
        <time>2019-09-17T11:39:42.711Z</time>
      </trkpt>
      <trkpt lat="50.52769" lon="3.45601">
        <ele>19.654605</ele>
        <time>2019-09-17T11:39:50.546Z</time>
      </trkpt>
      <trkpt lat="50.52802" lon="3.4571">
        <ele>20.190873</ele>
        <time>2019-09-17T11:40:06.804Z</time>
      </trkpt>
      <trkpt lat="50.52899" lon="3.46191">
        <ele>22.663107</ele>
        <time>2019-09-17T11:41:14.281Z</time>
      </trkpt>
      <trkpt lat="50.52939" lon="3.46351">
        <ele>23.957303</ele>
        <time>2019-09-17T11:41:41.104Z</time>
      </trkpt>
      <trkpt lat="50.52951" lon="3.46484">
        <ele>25.071672</ele>
        <time>2019-09-17T11:42:02.265Z</time>
      </trkpt>
      <trkpt lat="50.53003" lon="3.46805">
        <ele>27.609594</ele>
        <time>2019-09-17T11:42:53.228Z</time>
      </trkpt>
      <trkpt lat="50.53008" lon="3.46817">
        <ele>27.699927</ele>
        <time>2019-09-17T11:42:55.275Z</time>
      </trkpt>
      <trkpt lat="50.53012" lon="3.46822">
        <ele>27.747762</ele>
        <time>2019-09-17T11:42:56.424Z</time>
      </trkpt>
      <trkpt lat="50.53018" lon="3.46828">
        <ele>27.825735</ele>
        <time>2019-09-17T11:42:58.206Z</time>
      </trkpt>
      <trkpt lat="50.53025" lon="3.46829">
        <ele>27.895141</ele>
        <time>2019-09-17T11:43:00.323Z</time>
      </trkpt>
      <trkpt lat="50.53175" lon="3.46773">
        <ele>27.95588</ele>
        <time>2019-09-17T11:43:30.308Z</time>
      </trkpt>
      <trkpt lat="50.53195" lon="3.46763">
        <ele>27.836387</ele>
        <time>2019-09-17T11:43:33.788Z</time>
      </trkpt>
      <trkpt lat="50.532" lon="3.46759">
        <ele>27.805091</ele>
        <time>2019-09-17T11:43:34.395Z</time>
      </trkpt>
      <trkpt lat="50.53267" lon="3.46704">
        <ele>27.23276</ele>
        <time>2019-09-17T11:43:44.584Z</time>
      </trkpt>
      <trkpt lat="50.53356" lon="3.46634">
        <ele>25.823936</ele>
        <time>2019-09-17T11:43:57.877Z</time>
      </trkpt>
      <trkpt lat="50.5341" lon="3.46593">
        <ele>24.978732</ele>
        <time>2019-09-17T11:44:06.654Z</time>
      </trkpt>
      <trkpt lat="50.53601" lon="3.4645">
        <ele>24.315489</ele>
        <time>2019-09-17T11:44:44.373Z</time>
      </trkpt>
      <trkpt lat="50.53712" lon="3.46368">
        <ele>23.120409</ele>
        <time>2019-09-17T11:45:02.286Z</time>
      </trkpt>
      <trkpt lat="50.53812" lon="3.46292">
        <ele>21.715546</ele>
        <time>2019-09-17T11:45:17.312Z</time>
      </trkpt>
      <trkpt lat="50.53844" lon="3.46263">
        <ele>21.220395</ele>
        <time>2019-09-17T11:45:22.356Z</time>
      </trkpt>
      <trkpt lat="50.53856" lon="3.46244">
        <ele>20.98386</ele>
        <time>2019-09-17T11:45:24.855Z</time>
      </trkpt>
      <trkpt lat="50.53878" lon="3.46181">
        <ele>20.382039</ele>
        <time>2019-09-17T11:45:31.417Z</time>
      </trkpt>
      <trkpt lat="50.5388" lon="3.46164">
        <ele>20.340825</ele>
        <time>2019-09-17T11:45:33.023Z</time>
      </trkpt>
      <trkpt lat="50.53949" lon="3.45679">
        <ele>19.381956</ele>
        <time>2019-09-17T11:46:26.521Z</time>
      </trkpt>
      <trkpt lat="50.54021" lon="3.45177">
        <ele>18.522435</ele>
        <time>2019-09-17T11:47:21.066Z</time>
      </trkpt>
      <trkpt lat="50.5404" lon="3.45071">
        <ele>18.340762</ele>
        <time>2019-09-17T11:47:32.656Z</time>
      </trkpt>
      <trkpt lat="50.54079" lon="3.44862">
        <ele>17.923582</ele>
        <time>2019-09-17T11:47:56.907Z</time>
      </trkpt>
      <trkpt lat="50.54083" lon="3.44841">
        <ele>17.881551</ele>
        <time>2019-09-17T11:47:58.972Z</time>
      </trkpt>
      <trkpt lat="50.54086" lon="3.44827">
        <ele>17.852594</ele>
        <time>2019-09-17T11:48:00.409Z</time>
      </trkpt>
      <trkpt lat="50.54086" lon="3.44823">
        <ele>17.84509</ele>
        <time>2019-09-17T11:48:00.995Z</time>
      </trkpt>
      <trkpt lat="50.5411" lon="3.4468">
        <ele>17.28134</ele>
        <time>2019-09-17T11:48:14.780Z</time>
      </trkpt>
      <trkpt lat="50.54123" lon="3.44691">
        <ele>17.187393</ele>
        <time>2019-09-17T11:48:17.134Z</time>
      </trkpt>
      <trkpt lat="50.54138" lon="3.44698">
        <ele>17.090367</ele>
        <time>2019-09-17T11:48:19.521Z</time>
      </trkpt>
      <trkpt lat="50.54141" lon="3.447">
        <ele>17.069332</ele>
        <time>2019-09-17T11:48:19.958Z</time>
      </trkpt>
      <trkpt lat="50.5416" lon="3.44707">
        <ele>16.944251</ele>
        <time>2019-09-17T11:48:23.390Z</time>
      </trkpt>
      <trkpt lat="50.5417" lon="3.44711">
        <ele>16.881245</ele>
        <time>2019-09-17T11:48:25.011Z</time>
      </trkpt>
      <trkpt lat="50.54179" lon="3.44715">
        <ele>16.820807</ele>
        <time>2019-09-17T11:48:26.479Z</time>
      </trkpt>
      <trkpt lat="50.54192" lon="3.4472">
        <ele>16.735231</ele>
        <time>2019-09-17T11:48:28.783Z</time>
      </trkpt>
      <trkpt lat="50.54222" lon="3.44731">
        <ele>16.742712</ele>
        <time>2019-09-17T11:48:33.844Z</time>
      </trkpt>
      <trkpt lat="50.54249" lon="3.44741">
        <ele>16.837113</ele>
        <time>2019-09-17T11:48:38.326Z</time>
      </trkpt>
      <trkpt lat="50.54262" lon="3.44741">
        <ele>16.881585</ele>
        <time>2019-09-17T11:48:40.520Z</time>
      </trkpt>
      <trkpt lat="50.5428" lon="3.44728">
        <ele>16.950419</ele>
        <time>2019-09-17T11:48:43.705Z</time>
      </trkpt>
      <trkpt lat="50.54288" lon="3.44721">
        <ele>16.981671</ele>
        <time>2019-09-17T11:48:45.629Z</time>
      </trkpt>
      <trkpt lat="50.54333" lon="3.44658">
        <ele>17.186324</ele>
        <time>2019-09-17T11:48:58.745Z</time>
      </trkpt>
      <trkpt lat="50.54389" lon="3.44586">
        <ele>17.576028</ele>
        <time>2019-09-17T11:49:15.776Z</time>
      </trkpt>
      <trkpt lat="50.54403" lon="3.4458">
        <ele>17.669178</ele>
        <time>2019-09-17T11:49:19.173Z</time>
      </trkpt>
      <trkpt lat="50.54414" lon="3.4458">
        <ele>17.740985</ele>
        <time>2019-09-17T11:49:21.480Z</time>
      </trkpt>
      <trkpt lat="50.54423" lon="3.4458">
        <ele>17.799546</ele>
        <time>2019-09-17T11:49:23.312Z</time>
      </trkpt>
      <trkpt lat="50.54433" lon="3.44583">
        <ele>17.866676</ele>
        <time>2019-09-17T11:49:25.473Z</time>
      </trkpt>
      <trkpt lat="50.54444" lon="3.44586">
        <ele>17.947488</ele>
        <time>2019-09-17T11:49:28.045Z</time>
      </trkpt>
      <trkpt lat="50.54443" lon="3.44602">
        <ele>18.015556</ele>
        <time>2019-09-17T11:49:30.771Z</time>
      </trkpt>
      <trkpt lat="50.54438" lon="3.44687">
        <ele>18.373141</ele>
        <time>2019-09-17T11:49:44.877Z</time>
      </trkpt>
      <trkpt lat="50.54433" lon="3.44779">
        <ele>18.528603</ele>
        <time>2019-09-17T11:49:59.658Z</time>
      </trkpt>
      <trkpt lat="50.54443" lon="3.44924">
        <ele>18.631392</ele>
        <time>2019-09-17T11:50:21.779Z</time>
      </trkpt>
      <trkpt lat="50.54452" lon="3.44978">
        <ele>18.670075</ele>
        <time>2019-09-17T11:50:30.361Z</time>
      </trkpt>
      <trkpt lat="50.54568" lon="3.45465">
        <ele>20.613048</ele>
        <time>2019-09-17T11:52:00.777Z</time>
      </trkpt>
      <trkpt lat="50.54568" lon="3.45465">
        <ele>20.613048</ele>
        <time>2019-09-17T11:52:00.829Z</time>
      </trkpt>
      <trkpt lat="50.54574" lon="3.45481">
        <ele>20.686792</ele>
        <time>2019-09-17T11:52:04.162Z</time>
      </trkpt>
      <trkpt lat="50.54552" lon="3.45503">
        <ele>20.854108</ele>
        <time>2019-09-17T11:52:11.256Z</time>
      </trkpt>
      <trkpt lat="50.54558" lon="3.45528">
        <ele>20.900068</ele>
        <time>2019-09-17T11:52:16.072Z</time>
      </trkpt>
      <trkpt lat="50.54783" lon="3.46437">
        <ele>22.251527</ele>
        <time>2019-09-17T11:54:53.250Z</time>
      </trkpt>
      <trkpt lat="50.54797" lon="3.46495">
        <ele>22.273231</ele>
        <time>2019-09-17T11:55:02.474Z</time>
      </trkpt>
      <trkpt lat="50.54807" lon="3.46548">
        <ele>22.292517</ele>
        <time>2019-09-17T11:55:48.951Z</time>
      </trkpt>
      <trkpt lat="50.54812" lon="3.46573">
        <ele>22.319127</ele>
        <time>2019-09-17T11:56:11.022Z</time>
      </trkpt>
      <trkpt lat="50.54824" lon="3.46616">
        <ele>22.407243</ele>
        <time>2019-09-17T11:56:18.277Z</time>
      </trkpt>
      <trkpt lat="50.54974" lon="3.47214">
        <ele>23.998772</ele>
        <time>2019-09-17T11:58:06.568Z</time>
      </trkpt>
      <trkpt lat="50.54985" lon="3.47264">
        <ele>24.147329</ele>
        <time>2019-09-17T11:58:15.442Z</time>
      </trkpt>
      <trkpt lat="50.54987" lon="3.47273">
        <ele>24.172338</ele>
        <time>2019-09-17T11:58:17.071Z</time>
      </trkpt>
      <trkpt lat="50.55024" lon="3.47426">
        <ele>24.635733</ele>
        <time>2019-09-17T11:58:44.324Z</time>
      </trkpt>
      <trkpt lat="50.55139" lon="3.47888">
        <ele>26.093577</ele>
        <time>2019-09-17T12:00:08.215Z</time>
      </trkpt>
      <trkpt lat="50.5518" lon="3.48053">
        <ele>26.638438</ele>
        <time>2019-09-17T12:00:37.858Z</time>
      </trkpt>
      <trkpt lat="50.55188" lon="3.48046">
        <ele>26.684004</ele>
        <time>2019-09-17T12:00:39.724Z</time>
      </trkpt>
      <trkpt lat="50.55197" lon="3.48034">
        <ele>26.739491</ele>
        <time>2019-09-17T12:00:41.970Z</time>
      </trkpt>
      <trkpt lat="50.55201" lon="3.48028">
        <ele>26.76762</ele>
        <time>2019-09-17T12:00:43.169Z</time>
      </trkpt>
      <trkpt lat="50.55205" lon="3.4802">
        <ele>26.797387</ele>
        <time>2019-09-17T12:00:44.490Z</time>
      </trkpt>
      <trkpt lat="50.5521" lon="3.48008">
        <ele>26.840855</ele>
        <time>2019-09-17T12:00:46.368Z</time>
      </trkpt>
      <trkpt lat="50.55261" lon="3.47984">
        <ele>27.21116</ele>
        <time>2019-09-17T12:00:57.384Z</time>
      </trkpt>
      <trkpt lat="50.55426" lon="3.47881">
        <ele>28.811265</ele>
        <time>2019-09-17T12:01:36.154Z</time>
      </trkpt>
      <trkpt lat="50.5553" lon="3.47818">
        <ele>30.297181</ele>
        <time>2019-09-17T12:02:03.562Z</time>
      </trkpt>
      <trkpt lat="50.55556" lon="3.47802">
        <ele>30.66374</ele>
        <time>2019-09-17T12:02:10.710Z</time>
      </trkpt>
      <trkpt lat="50.55584" lon="3.47785">
        <ele>31.021027</ele>
        <time>2019-09-17T12:02:18.638Z</time>
      </trkpt>
      <trkpt lat="50.55636" lon="3.47763">
        <ele>31.598754</ele>
        <time>2019-09-17T12:02:32.244Z</time>
      </trkpt>
      <trkpt lat="50.55658" lon="3.47761">
        <ele>31.833023</ele>
        <time>2019-09-17T12:02:37.768Z</time>
      </trkpt>
      <trkpt lat="50.55681" lon="3.4776">
        <ele>32.079766</ele>
        <time>2019-09-17T12:02:42.882Z</time>
      </trkpt>
      <trkpt lat="50.55701" lon="3.47748">
        <ele>32.314346</ele>
        <time>2019-09-17T12:02:47.442Z</time>
      </trkpt>
      <trkpt lat="50.55728" lon="3.47699">
        <ele>32.732926</ele>
        <time>2019-09-17T12:02:55.378Z</time>
      </trkpt>
      <trkpt lat="50.55744" lon="3.47681">
        <ele>32.754245</ele>
        <time>2019-09-17T12:02:59.003Z</time>
      </trkpt>
      <trkpt lat="50.55747" lon="3.47679">
        <ele>32.757434</ele>
        <time>2019-09-17T12:02:59.805Z</time>
      </trkpt>
      <trkpt lat="50.55752" lon="3.47676">
        <ele>32.764076</ele>
        <time>2019-09-17T12:03:00.846Z</time>
      </trkpt>
      <trkpt lat="50.55759" lon="3.47674">
        <ele>32.771385</ele>
        <time>2019-09-17T12:03:02.038Z</time>
      </trkpt>
      <trkpt lat="50.55776" lon="3.47674">
        <ele>32.78961</ele>
        <time>2019-09-17T12:03:05.181Z</time>
      </trkpt>
      <trkpt lat="50.55831" lon="3.47675">
        <ele>32.849529</ele>
        <time>2019-09-17T12:03:15.062Z</time>
      </trkpt>
      <trkpt lat="50.55848" lon="3.47676">
        <ele>32.868633</ele>
        <time>2019-09-17T12:03:18.009Z</time>
      </trkpt>
      <trkpt lat="50.55876" lon="3.47695">
        <ele>32.901543</ele>
        <time>2019-09-17T12:03:23.248Z</time>
      </trkpt>
      <trkpt lat="50.55915" lon="3.47765">
        <ele>33.171282</ele>
        <time>2019-09-17T12:03:33.561Z</time>
      </trkpt>
      <trkpt lat="50.56024" lon="3.47769">
        <ele>33.909727</ele>
        <time>2019-09-17T12:03:57.621Z</time>
      </trkpt>
      <trkpt lat="50.56079" lon="3.47789">
        <ele>34.334937</ele>
        <time>2019-09-17T12:04:10.340Z</time>
      </trkpt>
      <trkpt lat="50.56092" lon="3.47804">
        <ele>34.469349</ele>
        <time>2019-09-17T12:04:14.157Z</time>
      </trkpt>
      <trkpt lat="50.56104" lon="3.47783">
        <ele>34.625935</ele>
        <time>2019-09-17T12:04:17.987Z</time>
      </trkpt>
      <trkpt lat="50.56138" lon="3.47691">
        <ele>35.21583</ele>
        <time>2019-09-17T12:04:33.082Z</time>
      </trkpt>
      <trkpt lat="50.56142" lon="3.47684">
        <ele>35.267854</ele>
        <time>2019-09-17T12:04:34.313Z</time>
      </trkpt>
      <trkpt lat="50.5615" lon="3.4768">
        <ele>35.342567</ele>
        <time>2019-09-17T12:04:36.377Z</time>
      </trkpt>
      <trkpt lat="50.56158" lon="3.47679">
        <ele>35.405555</ele>
        <time>2019-09-17T12:04:38.049Z</time>
      </trkpt>
      <trkpt lat="50.56187" lon="3.47692">
        <ele>35.669619</ele>
        <time>2019-09-17T12:04:44.480Z</time>
      </trkpt>
      <trkpt lat="50.56193" lon="3.47696">
        <ele>35.723794</ele>
        <time>2019-09-17T12:04:46.092Z</time>
      </trkpt>
      <trkpt lat="50.5623" lon="3.47745">
        <ele>36.001859</ele>
        <time>2019-09-17T12:04:55.486Z</time>
      </trkpt>
      <trkpt lat="50.56236" lon="3.47754">
        <ele>36.054865</ele>
        <time>2019-09-17T12:04:57.288Z</time>
      </trkpt>
      <trkpt lat="50.5624" lon="3.47748">
        <ele>36.084258</ele>
        <time>2019-09-17T12:04:58.345Z</time>
      </trkpt>
      <trkpt lat="50.56298" lon="3.47689">
        <ele>36.489454</ele>
        <time>2019-09-17T12:05:12.415Z</time>
      </trkpt>
      <trkpt lat="50.56326" lon="3.47642">
        <ele>36.72634</ele>
        <time>2019-09-17T12:05:20.945Z</time>
      </trkpt>
      <trkpt lat="50.5639" lon="3.47615">
        <ele>37.297733</ele>
        <time>2019-09-17T12:05:34.967Z</time>
      </trkpt>
      <trkpt lat="50.56432" lon="3.47581">
        <ele>37.718333</ele>
        <time>2019-09-17T12:05:45.073Z</time>
      </trkpt>
      <trkpt lat="50.56483" lon="3.4754">
        <ele>38.229638</ele>
        <time>2019-09-17T12:05:58.214Z</time>
      </trkpt>
      <trkpt lat="50.56562" lon="3.47477">
        <ele>39.453336</ele>
        <time>2019-09-17T12:06:19.631Z</time>
      </trkpt>
      <trkpt lat="50.56576" lon="3.47466">
        <ele>39.696945</ele>
        <time>2019-09-17T12:06:24.261Z</time>
      </trkpt>
      <trkpt lat="50.56619" lon="3.47432">
        <ele>40.403224</ele>
        <time>2019-09-17T12:06:36.174Z</time>
      </trkpt>
      <trkpt lat="50.56634" lon="3.47422">
        <ele>40.656446</ele>
        <time>2019-09-17T12:06:40.366Z</time>
      </trkpt>
      <trkpt lat="50.56641" lon="3.47421">
        <ele>40.748563</ele>
        <time>2019-09-17T12:06:42.074Z</time>
      </trkpt>
      <trkpt lat="50.56648" lon="3.47418">
        <ele>40.856165</ele>
        <time>2019-09-17T12:06:43.964Z</time>
      </trkpt>
      <trkpt lat="50.56697" lon="3.47412">
        <ele>41.580374</ele>
        <time>2019-09-17T12:06:55.690Z</time>
      </trkpt>
      <trkpt lat="50.56701" lon="3.47411">
        <ele>41.645463</ele>
        <time>2019-09-17T12:06:57.009Z</time>
      </trkpt>
      <trkpt lat="50.56705" lon="3.47409">
        <ele>41.713422</ele>
        <time>2019-09-17T12:06:58.178Z</time>
      </trkpt>
      <trkpt lat="50.56717" lon="3.47403">
        <ele>41.891095</ele>
        <time>2019-09-17T12:07:01.425Z</time>
      </trkpt>
      <trkpt lat="50.56774" lon="3.47365">
        <ele>42.806024</ele>
        <time>2019-09-17T12:07:16.905Z</time>
      </trkpt>
      <trkpt lat="50.56807" lon="3.47489">
        <ele>43.962396</ele>
        <time>2019-09-17T12:07:37.945Z</time>
      </trkpt>
      <trkpt lat="50.56812" lon="3.47507">
        <ele>44.097183</ele>
        <time>2019-09-17T12:07:40.704Z</time>
      </trkpt>
      <trkpt lat="50.56815" lon="3.47518">
        <ele>44.185226</ele>
        <time>2019-09-17T12:07:42.395Z</time>
      </trkpt>
      <trkpt lat="50.5682" lon="3.47528">
        <ele>44.273907</ele>
        <time>2019-09-17T12:07:44.599Z</time>
      </trkpt>
      <trkpt lat="50.56838" lon="3.47544">
        <ele>44.500181</ele>
        <time>2019-09-17T12:07:49.211Z</time>
      </trkpt>
      <trkpt lat="50.56882" lon="3.47565">
        <ele>45.000005</ele>
        <time>2019-09-17T12:07:59.637Z</time>
      </trkpt>
      <trkpt lat="50.569" lon="3.47571">
        <ele>45.201938</ele>
        <time>2019-09-17T12:08:04.063Z</time>
      </trkpt>
      <trkpt lat="50.56943" lon="3.476">
        <ele>45.66764</ele>
        <time>2019-09-17T12:08:14.415Z</time>
      </trkpt>
      <trkpt lat="50.56963" lon="3.47614">
        <ele>45.766657</ele>
        <time>2019-09-17T12:08:19.520Z</time>
      </trkpt>
      <trkpt lat="50.57008" lon="3.47669">
        <ele>46.027243</ele>
        <time>2019-09-17T12:08:31.147Z</time>
      </trkpt>
      <trkpt lat="50.57079" lon="3.47757">
        <ele>46.43479</ele>
        <time>2019-09-17T12:08:48.197Z</time>
      </trkpt>
      <trkpt lat="50.57106" lon="3.47799">
        <ele>46.550688</ele>
        <time>2019-09-17T12:08:55.052Z</time>
      </trkpt>
      <trkpt lat="50.57133" lon="3.47873">
        <ele>46.704874</ele>
        <time>2019-09-17T12:09:04.597Z</time>
      </trkpt>
      <trkpt lat="50.57171" lon="3.48065">
        <ele>47.322758</ele>
        <time>2019-09-17T12:09:30.376Z</time>
      </trkpt>
      <trkpt lat="50.57175" lon="3.4809">
        <ele>47.483414</ele>
        <time>2019-09-17T12:09:33.613Z</time>
      </trkpt>
      <trkpt lat="50.57179" lon="3.48099">
        <ele>47.557145</ele>
        <time>2019-09-17T12:09:35.613Z</time>
      </trkpt>
      <trkpt lat="50.57191" lon="3.48156">
        <ele>47.941429</ele>
        <time>2019-09-17T12:09:44.312Z</time>
      </trkpt>
      <trkpt lat="50.57235" lon="3.48362">
        <ele>49.154488</ele>
        <time>2019-09-17T12:10:17.620Z</time>
      </trkpt>
      <trkpt lat="50.5724" lon="3.48391">
        <ele>49.289223</ele>
        <time>2019-09-17T12:10:21.855Z</time>
      </trkpt>
      <trkpt lat="50.57246" lon="3.48417">
        <ele>49.411986</ele>
        <time>2019-09-17T12:10:25.421Z</time>
      </trkpt>
      <trkpt lat="50.57252" lon="3.48448">
        <ele>49.55829</ele>
        <time>2019-09-17T12:10:29.775Z</time>
      </trkpt>
      <trkpt lat="50.57263" lon="3.48501">
        <ele>49.810019</ele>
        <time>2019-09-17T12:10:39.063Z</time>
      </trkpt>
      <trkpt lat="50.57284" lon="3.48598">
        <ele>50.101694</ele>
        <time>2019-09-17T12:10:50.774Z</time>
      </trkpt>
      <trkpt lat="50.57308" lon="3.48672">
        <ele>50.214828</ele>
        <time>2019-09-17T12:11:03.314Z</time>
      </trkpt>
      <trkpt lat="50.57351" lon="3.48791">
        <ele>50.400383</ele>
        <time>2019-09-17T12:11:24.915Z</time>
      </trkpt>
      <trkpt lat="50.57355" lon="3.4881">
        <ele>50.500756</ele>
        <time>2019-09-17T12:11:28.308Z</time>
      </trkpt>
      <trkpt lat="50.57338" lon="3.48512">
        <ele>53.21493</ele>
        <time>2019-09-17T12:12:15.981Z</time>
      </trkpt>
      <trkpt lat="50.57343" lon="3.48486">
        <ele>53.586457</ele>
        <time>2019-09-17T12:12:20.929Z</time>
      </trkpt>
      <trkpt lat="50.57368" lon="3.48467">
        <ele>54.180656</ele>
        <time>2019-09-17T12:12:28.869Z</time>
      </trkpt>
      <trkpt lat="50.57614" lon="3.48354">
        <ele>59.651379</ele>
        <time>2019-09-17T12:13:42.189Z</time>
      </trkpt>
      <trkpt lat="50.57828" lon="3.48274">
        <ele>63.609051</ele>
        <time>2019-09-17T12:14:41.004Z</time>
      </trkpt>
      <trkpt lat="50.57835" lon="3.48271">
        <ele>63.619501</ele>
        <time>2019-09-17T12:14:43.016Z</time>
      </trkpt>
      <trkpt lat="50.57854" lon="3.48264">
        <ele>63.605515</ele>
        <time>2019-09-17T12:14:46.833Z</time>
      </trkpt>
      <trkpt lat="50.57903" lon="3.48269">
        <ele>63.568624</ele>
        <time>2019-09-17T12:14:56.756Z</time>
      </trkpt>
      <trkpt lat="50.57955" lon="3.48264">
        <ele>63.529949</ele>
        <time>2019-09-17T12:15:05.587Z</time>
      </trkpt>
      <trkpt lat="50.58057" lon="3.48288">
        <ele>62.540437</ele>
        <time>2019-09-17T12:15:20.172Z</time>
      </trkpt>
      <trkpt lat="50.58217" lon="3.48384">
        <ele>59.138244</ele>
        <time>2019-09-17T12:15:42.414Z</time>
      </trkpt>
      <trkpt lat="50.5826" lon="3.484">
        <ele>58.141942</ele>
        <time>2019-09-17T12:15:48.032Z</time>
      </trkpt>
      <trkpt lat="50.5853" lon="3.48404">
        <ele>52.347243</ele>
        <time>2019-09-17T12:16:23.085Z</time>
      </trkpt>
      <trkpt lat="50.58543" lon="3.4841">
        <ele>52.193005</ele>
        <time>2019-09-17T12:16:24.901Z</time>
      </trkpt>
      <trkpt lat="50.5859" lon="3.48481">
        <ele>51.649318</ele>
        <time>2019-09-17T12:16:34.440Z</time>
      </trkpt>
      <trkpt lat="50.58625" lon="3.48547">
        <ele>51.195659</ele>
        <time>2019-09-17T12:16:43.005Z</time>
      </trkpt>
      <trkpt lat="50.58634" lon="3.48585">
        <ele>50.978788</ele>
        <time>2019-09-17T12:16:47.288Z</time>
      </trkpt>
      <trkpt lat="50.58634" lon="3.48585">
        <ele>50.978788</ele>
        <time>2019-09-17T12:16:47.315Z</time>
      </trkpt>
      <trkpt lat="50.58649" lon="3.48728">
        <ele>50.438049</ele>
        <time>2019-09-17T12:17:02.829Z</time>
      </trkpt>
      <trkpt lat="50.58665" lon="3.48769">
        <ele>50.28415</ele>
        <time>2019-09-17T12:17:07.939Z</time>
      </trkpt>
      <trkpt lat="50.58682" lon="3.48786">
        <ele>50.184619</ele>
        <time>2019-09-17T12:17:11.176Z</time>
      </trkpt>
      <trkpt lat="50.5871" lon="3.48796">
        <ele>50.042445</ele>
        <time>2019-09-17T12:17:15.570Z</time>
      </trkpt>
      <trkpt lat="50.58803" lon="3.48807">
        <ele>49.157264</ele>
        <time>2019-09-17T12:17:29.326Z</time>
      </trkpt>
      <trkpt lat="50.58813" lon="3.48812">
        <ele>49.025156</ele>
        <time>2019-09-17T12:17:30.860Z</time>
      </trkpt>
      <trkpt lat="50.58835" lon="3.48839">
        <ele>48.690981</ele>
        <time>2019-09-17T12:17:34.802Z</time>
      </trkpt>
      <trkpt lat="50.58847" lon="3.48855">
        <ele>48.501588</ele>
        <time>2019-09-17T12:17:36.924Z</time>
      </trkpt>
      <trkpt lat="50.58859" lon="3.48834">
        <ele>48.284845</ele>
        <time>2019-09-17T12:17:40.574Z</time>
      </trkpt>
      <trkpt lat="50.58869" lon="3.48814">
        <ele>48.098847</ele>
        <time>2019-09-17T12:17:43.593Z</time>
      </trkpt>
      <trkpt lat="50.58876" lon="3.488">
        <ele>47.955073</ele>
        <time>2019-09-17T12:17:46.000Z</time>
      </trkpt>
      <trkpt lat="50.58898" lon="3.48765">
        <ele>47.572764</ele>
        <time>2019-09-17T12:17:52.238Z</time>
      </trkpt>
      <trkpt lat="50.5893" lon="3.4871">
        <ele>46.963151</ele>
        <time>2019-09-17T12:18:01.676Z</time>
      </trkpt>
      <trkpt lat="50.58945" lon="3.48719">
        <ele>46.75412</ele>
        <time>2019-09-17T12:18:04.846Z</time>
      </trkpt>
      <trkpt lat="50.58963" lon="3.48724">
        <ele>46.512369</ele>
        <time>2019-09-17T12:18:08.570Z</time>
      </trkpt>
      <trkpt lat="50.5898" lon="3.48729">
        <ele>46.28852</ele>
        <time>2019-09-17T12:18:12.093Z</time>
      </trkpt>
      <trkpt lat="50.59022" lon="3.48704">
        <ele>45.719503</ele>
        <time>2019-09-17T12:18:20.941Z</time>
      </trkpt>
      <trkpt lat="50.59026" lon="3.48698">
        <ele>45.646863</ele>
        <time>2019-09-17T12:18:22.101Z</time>
      </trkpt>
      <trkpt lat="50.59035" lon="3.48686">
        <ele>45.495002</ele>
        <time>2019-09-17T12:18:24.501Z</time>
      </trkpt>
      <trkpt lat="50.59039" lon="3.48677">
        <ele>45.397094</ele>
        <time>2019-09-17T12:18:26.136Z</time>
      </trkpt>
      <trkpt lat="50.59042" lon="3.48665">
        <ele>45.32821</ele>
        <time>2019-09-17T12:18:27.633Z</time>
      </trkpt>
      <trkpt lat="50.59042" lon="3.48656">
        <ele>45.28095</ele>
        <time>2019-09-17T12:18:28.890Z</time>
      </trkpt>
      <trkpt lat="50.59042" lon="3.48628">
        <ele>45.13348</ele>
        <time>2019-09-17T12:18:32.692Z</time>
      </trkpt>
      <trkpt lat="50.59039" lon="3.48507">
        <ele>44.508847</ele>
        <time>2019-09-17T12:18:49.502Z</time>
      </trkpt>
      <trkpt lat="50.59042" lon="3.48498">
        <ele>44.454018</ele>
        <time>2019-09-17T12:18:50.830Z</time>
      </trkpt>
      <trkpt lat="50.59071" lon="3.48457">
        <ele>44.134909</ele>
        <time>2019-09-17T12:18:59.299Z</time>
      </trkpt>
      <trkpt lat="50.59089" lon="3.4842">
        <ele>43.877331</ele>
        <time>2019-09-17T12:19:05.738Z</time>
      </trkpt>
      <trkpt lat="50.59102" lon="3.48367">
        <ele>43.41027</ele>
        <time>2019-09-17T12:19:13.427Z</time>
      </trkpt>
      <trkpt lat="50.5911" lon="3.48351">
        <ele>43.246597</ele>
        <time>2019-09-17T12:19:16.038Z</time>
      </trkpt>
      <trkpt lat="50.59122" lon="3.48337">
        <ele>43.044058</ele>
        <time>2019-09-17T12:19:19.406Z</time>
      </trkpt>
      <trkpt lat="50.5914" lon="3.48328">
        <ele>42.798885</ele>
        <time>2019-09-17T12:19:23.126Z</time>
      </trkpt>
      <trkpt lat="50.59243" lon="3.48273">
        <ele>41.361783</ele>
        <time>2019-09-17T12:19:44.331Z</time>
      </trkpt>
      <trkpt lat="50.59332" lon="3.48142">
        <ele>39.577291</ele>
        <time>2019-09-17T12:20:07.616Z</time>
      </trkpt>
      <trkpt lat="50.59369" lon="3.48082">
        <ele>38.946142</ele>
        <time>2019-09-17T12:20:18.945Z</time>
      </trkpt>
      <trkpt lat="50.59314" lon="3.48023">
        <ele>39.105267</ele>
        <time>2019-09-17T12:20:34.598Z</time>
      </trkpt>
      <trkpt lat="50.59304" lon="3.48014">
        <ele>39.133774</ele>
        <time>2019-09-17T12:20:38.118Z</time>
      </trkpt>
      <trkpt lat="50.59293" lon="3.48005">
        <ele>39.163904</ele>
        <time>2019-09-17T12:20:41.269Z</time>
      </trkpt>
      <trkpt lat="50.59219" lon="3.47937">
        <ele>39.375825</ele>
        <time>2019-09-17T12:21:05.449Z</time>
      </trkpt>
      <trkpt lat="50.59216" lon="3.4792">
        <ele>39.422409</ele>
        <time>2019-09-17T12:21:09.145Z</time>
      </trkpt>
      <trkpt lat="50.59222" lon="3.47886">
        <ele>39.514794</ele>
        <time>2019-09-17T12:21:15.167Z</time>
      </trkpt>
      <trkpt lat="50.59244" lon="3.47797">
        <ele>39.766256</ele>
        <time>2019-09-17T12:21:31.239Z</time>
      </trkpt>
      <trkpt lat="50.59268" lon="3.47728">
        <ele>39.972175</ele>
        <time>2019-09-17T12:21:43.362Z</time>
      </trkpt>
      <trkpt lat="50.59314" lon="3.47621">
        <ele>40.205268</ele>
        <time>2019-09-17T12:22:04.058Z</time>
      </trkpt>
      <trkpt lat="50.59327" lon="3.47572">
        <ele>40.274706</ele>
        <time>2019-09-17T12:22:12.739Z</time>
      </trkpt>
      <trkpt lat="50.59329" lon="3.47563">
        <ele>40.28759</ele>
        <time>2019-09-17T12:22:14.194Z</time>
      </trkpt>
      <trkpt lat="50.59329" lon="3.47563">
        <ele>40.28759</ele>
        <time>2019-09-17T12:22:14.197Z</time>
      </trkpt>
      <trkpt lat="50.59341" lon="3.47519">
        <ele>40.349883</ele>
        <time>2019-09-17T12:22:22.109Z</time>
      </trkpt>
      <trkpt lat="50.59349" lon="3.47485">
        <ele>40.397521</ele>
        <time>2019-09-17T12:22:27.719Z</time>
      </trkpt>
      <trkpt lat="50.59356" lon="3.47475">
        <ele>40.417507</ele>
        <time>2019-09-17T12:22:30.521Z</time>
      </trkpt>
      <trkpt lat="50.59381" lon="3.47432">
        <ele>40.479813</ele>
        <time>2019-09-17T12:22:39.924Z</time>
      </trkpt>
      <trkpt lat="50.59515" lon="3.47314">
        <ele>40.615448</ele>
        <time>2019-09-17T12:23:18.520Z</time>
      </trkpt>
      <trkpt lat="50.59579" lon="3.47278">
        <ele>40.238267</ele>
        <time>2019-09-17T12:23:33.833Z</time>
      </trkpt>
      <trkpt lat="50.59579" lon="3.47291">
        <ele>40.175138</ele>
        <time>2019-09-17T12:23:35.246Z</time>
      </trkpt>
      <trkpt lat="50.59595" lon="3.47275">
        <ele>40.0393</ele>
        <time>2019-09-17T12:23:39.195Z</time>
      </trkpt>
      <trkpt lat="50.59637" lon="3.47245">
        <ele>39.703914</ele>
        <time>2019-09-17T12:23:48.935Z</time>
      </trkpt>
      <trkpt lat="50.59656" lon="3.47237">
        <ele>39.556427</ele>
        <time>2019-09-17T12:23:53.077Z</time>
      </trkpt>
      <trkpt lat="50.59662" lon="3.47236">
        <ele>39.509353</ele>
        <time>2019-09-17T12:23:54.430Z</time>
      </trkpt>
      <trkpt lat="50.59674" lon="3.47241">
        <ele>39.420223</ele>
        <time>2019-09-17T12:23:56.983Z</time>
      </trkpt>
      <trkpt lat="50.59694" lon="3.47157">
        <ele>38.694779</ele>
        <time>2019-09-17T12:24:08.687Z</time>
      </trkpt>
      <trkpt lat="50.59691" lon="3.47138">
        <ele>38.507154</ele>
        <time>2019-09-17T12:24:11.336Z</time>
      </trkpt>
      <trkpt lat="50.59693" lon="3.47125">
        <ele>38.388267</ele>
        <time>2019-09-17T12:24:12.961Z</time>
      </trkpt>
      <trkpt lat="50.5971" lon="3.47089">
        <ele>37.965306</ele>
        <time>2019-09-17T12:24:18.836Z</time>
      </trkpt>
      <trkpt lat="50.59713" lon="3.4708">
        <ele>37.877491</ele>
        <time>2019-09-17T12:24:20.030Z</time>
      </trkpt>
      <trkpt lat="50.59734" lon="3.46984">
        <ele>36.942529</ele>
        <time>2019-09-17T12:24:32.686Z</time>
      </trkpt>
      <trkpt lat="50.59748" lon="3.46916">
        <ele>36.069281</ele>
        <time>2019-09-17T12:24:41.461Z</time>
      </trkpt>
      <trkpt lat="50.59802" lon="3.4695">
        <ele>34.815791</ele>
        <time>2019-09-17T12:24:48.978Z</time>
      </trkpt>
      <trkpt lat="50.59859" lon="3.46986">
        <ele>33.489721</ele>
        <time>2019-09-17T12:24:56.795Z</time>
      </trkpt>
      <trkpt lat="50.59862" lon="3.46989">
        <ele>33.40354</ele>
        <time>2019-09-17T12:24:57.312Z</time>
      </trkpt>
      <trkpt lat="50.59938" lon="3.47033">
        <ele>31.72096</ele>
        <time>2019-09-17T12:25:07.721Z</time>
      </trkpt>
      <trkpt lat="50.59959" lon="3.47034">
        <ele>31.302533</ele>
        <time>2019-09-17T12:25:10.373Z</time>
      </trkpt>
      <trkpt lat="50.60084" lon="3.46996">
        <ele>28.601344</ele>
        <time>2019-09-17T12:25:27.413Z</time>
      </trkpt>
      <trkpt lat="50.60107" lon="3.47009">
        <ele>28.011034</ele>
        <time>2019-09-17T12:25:30.674Z</time>
      </trkpt>
      <trkpt lat="50.60118" lon="3.47021">
        <ele>27.684683</ele>
        <time>2019-09-17T12:25:32.498Z</time>
      </trkpt>
      <trkpt lat="50.60172" lon="3.47099">
        <ele>25.877333</ele>
        <time>2019-09-17T12:25:42.389Z</time>
      </trkpt>
      <trkpt lat="50.60256" lon="3.47185">
        <ele>22.464686</ele>
        <time>2019-09-17T12:25:54.097Z</time>
      </trkpt>
      <trkpt lat="50.60298" lon="3.47212">
        <ele>20.533128</ele>
        <time>2019-09-17T12:25:59.495Z</time>
      </trkpt>
      <trkpt lat="50.60304" lon="3.47216">
        <ele>20.242645</ele>
        <time>2019-09-17T12:26:00.245Z</time>
      </trkpt>
      <trkpt lat="50.6031" lon="3.47219">
        <ele>19.97183</ele>
        <time>2019-09-17T12:26:00.916Z</time>
      </trkpt>
      <trkpt lat="50.60354" lon="3.47232">
        <ele>18.087672</ele>
        <time>2019-09-17T12:26:06.201Z</time>
      </trkpt>
      <trkpt lat="50.60385" lon="3.47232">
        <ele>16.751586</ele>
        <time>2019-09-17T12:26:09.765Z</time>
      </trkpt>
      <trkpt lat="50.60496" lon="3.47205">
        <ele>11.866686</ele>
        <time>2019-09-17T12:26:22.584Z</time>
      </trkpt>
      <trkpt lat="50.60516" lon="3.47202">
        <ele>10.999272</ele>
        <time>2019-09-17T12:26:25.109Z</time>
      </trkpt>
      <trkpt lat="50.60535" lon="3.47205">
        <ele>10.184261</ele>
        <time>2019-09-17T12:26:27.222Z</time>
      </trkpt>
      <trkpt lat="50.60613" lon="3.47237">
        <ele>7.621529</ele>
        <time>2019-09-17T12:26:36.721Z</time>
      </trkpt>
      <trkpt lat="50.60758" lon="3.47353">
        <ele>4.87469</ele>
        <time>2019-09-17T12:26:57.568Z</time>
      </trkpt>
      <trkpt lat="50.60973" lon="3.47511">
        <ele>11.875457</ele>
        <time>2019-09-17T12:28:12.091Z</time>
      </trkpt>
      <trkpt lat="50.6098" lon="3.47517">
        <ele>12.290846</ele>
        <time>2019-09-17T12:28:16.424Z</time>
      </trkpt>
      <trkpt lat="50.61076" lon="3.47588">
        <ele>18.305856</ele>
        <time>2019-09-17T12:29:14.807Z</time>
      </trkpt>
      <trkpt lat="50.61119" lon="3.47603">
        <ele>21.315703</ele>
        <time>2019-09-17T12:29:40.213Z</time>
      </trkpt>
      <trkpt lat="50.61163" lon="3.47606">
        <ele>24.366654</ele>
        <time>2019-09-17T12:30:04.260Z</time>
      </trkpt>
      <trkpt lat="50.61212" lon="3.47601">
        <ele>27.717479</ele>
        <time>2019-09-17T12:30:27.069Z</time>
      </trkpt>
      <trkpt lat="50.6125" lon="3.47598">
        <ele>29.037795</ele>
        <time>2019-09-17T12:30:41.682Z</time>
      </trkpt>
      <trkpt lat="50.61314" lon="3.47606">
        <ele>30.494423</ele>
        <time>2019-09-17T12:31:02.081Z</time>
      </trkpt>
      <trkpt lat="50.61372" lon="3.47635">
        <ele>31.877117</ele>
        <time>2019-09-17T12:31:16.214Z</time>
      </trkpt>
      <trkpt lat="50.61462" lon="3.47684">
        <ele>32.174948</ele>
        <time>2019-09-17T12:31:32.316Z</time>
      </trkpt>
      <trkpt lat="50.61456" lon="3.47747">
        <ele>31.991456</ele>
        <time>2019-09-17T12:31:38.723Z</time>
      </trkpt>
      <trkpt lat="50.6145" lon="3.47903">
        <ele>31.52999</ele>
        <time>2019-09-17T12:31:53.814Z</time>
      </trkpt>
      <trkpt lat="50.61457" lon="3.47998">
        <ele>31.22485</ele>
        <time>2019-09-17T12:32:02.928Z</time>
      </trkpt>
      <trkpt lat="50.61467" lon="3.4804">
        <ele>31.08509</ele>
        <time>2019-09-17T12:32:07.265Z</time>
      </trkpt>
      <trkpt lat="50.6153" lon="3.48217">
        <ele>31.245157</ele>
        <time>2019-09-17T12:32:30.248Z</time>
      </trkpt>
      <trkpt lat="50.61546" lon="3.48266">
        <ele>31.491956</ele>
        <time>2019-09-17T12:32:37.603Z</time>
      </trkpt>
      <trkpt lat="50.61616" lon="3.48449">
        <ele>32.85335</ele>
        <time>2019-09-17T12:33:10.673Z</time>
      </trkpt>
      <trkpt lat="50.61642" lon="3.48524">
        <ele>33.610089</ele>
        <time>2019-09-17T12:33:24.427Z</time>
      </trkpt>
      <trkpt lat="50.61656" lon="3.48576">
        <ele>34.103939</ele>
        <time>2019-09-17T12:33:33.113Z</time>
      </trkpt>
      <trkpt lat="50.61677" lon="3.48707">
        <ele>35.321414</ele>
        <time>2019-09-17T12:33:53.475Z</time>
      </trkpt>
      <trkpt lat="50.6171" lon="3.48841">
        <ele>36.628062</ele>
        <time>2019-09-17T12:34:15.722Z</time>
      </trkpt>
      <trkpt lat="50.61729" lon="3.489">
        <ele>37.285916</ele>
        <time>2019-09-17T12:34:26.379Z</time>
      </trkpt>
      <trkpt lat="50.61733" lon="3.48914">
        <ele>37.525967</ele>
        <time>2019-09-17T12:34:29.337Z</time>
      </trkpt>
      <trkpt lat="50.6174" lon="3.48951">
        <ele>38.110806</ele>
        <time>2019-09-17T12:34:35.713Z</time>
      </trkpt>
      <trkpt lat="50.61744" lon="3.48989">
        <ele>38.687452</ele>
        <time>2019-09-17T12:34:43.006Z</time>
      </trkpt>
      <trkpt lat="50.6175" lon="3.49122">
        <ele>40.711974</ele>
        <time>2019-09-17T12:35:08.848Z</time>
      </trkpt>
      <trkpt lat="50.61749" lon="3.49134">
        <ele>40.8917</ele>
        <time>2019-09-17T12:35:11.291Z</time>
      </trkpt>
      <trkpt lat="50.61748" lon="3.49147">
        <ele>41.097883</ele>
        <time>2019-09-17T12:35:13.856Z</time>
      </trkpt>
      <trkpt lat="50.61729" lon="3.49163">
        <ele>41.578092</ele>
        <time>2019-09-17T12:35:20.400Z</time>
      </trkpt>
      <trkpt lat="50.61726" lon="3.49178">
        <ele>41.775723</ele>
        <time>2019-09-17T12:35:23.388Z</time>
      </trkpt>
      <trkpt lat="50.61726" lon="3.49192">
        <ele>41.957413</ele>
        <time>2019-09-17T12:35:26.307Z</time>
      </trkpt>
      <trkpt lat="50.61736" lon="3.49212">
        <ele>42.27558</ele>
        <time>2019-09-17T12:35:30.846Z</time>
      </trkpt>
      <trkpt lat="50.61747" lon="3.49238">
        <ele>42.669226</ele>
        <time>2019-09-17T12:35:36.971Z</time>
      </trkpt>
      <trkpt lat="50.61756" lon="3.49253">
        <ele>42.926746</ele>
        <time>2019-09-17T12:35:40.740Z</time>
      </trkpt>
      <trkpt lat="50.61765" lon="3.49289">
        <ele>43.403111</ele>
        <time>2019-09-17T12:35:47.935Z</time>
      </trkpt>
      <trkpt lat="50.61782" lon="3.49458">
        <ele>44.994647</ele>
        <time>2019-09-17T12:36:14.567Z</time>
      </trkpt>
      <trkpt lat="50.61785" lon="3.49489">
        <ele>44.999003</ele>
        <time>2019-09-17T12:36:19.035Z</time>
      </trkpt>
      <trkpt lat="50.6179" lon="3.49542">
        <ele>45.00632</ele>
        <time>2019-09-17T12:36:24.882Z</time>
      </trkpt>
      <trkpt lat="50.6179" lon="3.49543">
        <ele>45.006418</ele>
        <time>2019-09-17T12:36:24.993Z</time>
      </trkpt>
      <trkpt lat="50.61802" lon="3.49604">
        <ele>45.015179</ele>
        <time>2019-09-17T12:36:31.762Z</time>
      </trkpt>
      <trkpt lat="50.61806" lon="3.49614">
        <ele>45.016834</ele>
        <time>2019-09-17T12:36:33.011Z</time>
      </trkpt>
      <trkpt lat="50.6181" lon="3.49618">
        <ele>45.017817</ele>
        <time>2019-09-17T12:36:33.568Z</time>
      </trkpt>
      <trkpt lat="50.61848" lon="3.49634">
        <ele>45.026389</ele>
        <time>2019-09-17T12:36:39.789Z</time>
      </trkpt>
      <trkpt lat="50.61873" lon="3.49664">
        <ele>44.871385</ele>
        <time>2019-09-17T12:36:44.523Z</time>
      </trkpt>
      <trkpt lat="50.61898" lon="3.49747">
        <ele>44.527294</ele>
        <time>2019-09-17T12:36:53.246Z</time>
      </trkpt>
      <trkpt lat="50.61918" lon="3.49814">
        <ele>44.249716</ele>
        <time>2019-09-17T12:37:00.419Z</time>
      </trkpt>
      <trkpt lat="50.61926" lon="3.49879">
        <ele>44.003692</ele>
        <time>2019-09-17T12:37:07.486Z</time>
      </trkpt>
      <trkpt lat="50.61932" lon="3.50011">
        <ele>44.064114</ele>
        <time>2019-09-17T12:37:22.769Z</time>
      </trkpt>
      <trkpt lat="50.6193" lon="3.50048">
        <ele>44.093117</ele>
        <time>2019-09-17T12:37:27.698Z</time>
      </trkpt>
      <trkpt lat="50.61918" lon="3.50235">
        <ele>43.951906</ele>
        <time>2019-09-17T12:37:50.313Z</time>
      </trkpt>
      <trkpt lat="50.61912" lon="3.50304">
        <ele>43.704361</ele>
        <time>2019-09-17T12:37:57.276Z</time>
      </trkpt>
      <trkpt lat="50.61901" lon="3.50386">
        <ele>43.402347</ele>
        <time>2019-09-17T12:38:05.212Z</time>
      </trkpt>
      <trkpt lat="50.61942" lon="3.50418">
        <ele>43.11223</ele>
        <time>2019-09-17T12:38:11.926Z</time>
      </trkpt>
      <trkpt lat="50.61955" lon="3.50421">
        <ele>42.935676</ele>
        <time>2019-09-17T12:38:13.828Z</time>
      </trkpt>
      <trkpt lat="50.61965" lon="3.50424">
        <ele>42.805075</ele>
        <time>2019-09-17T12:38:15.912Z</time>
      </trkpt>
      <trkpt lat="50.61976" lon="3.50429">
        <ele>42.655106</ele>
        <time>2019-09-17T12:38:17.653Z</time>
      </trkpt>
      <trkpt lat="50.6202" lon="3.50444">
        <ele>42.054908</ele>
        <time>2019-09-17T12:38:24.106Z</time>
      </trkpt>
      <trkpt lat="50.62059" lon="3.50459">
        <ele>41.534531</ele>
        <time>2019-09-17T12:38:29.559Z</time>
      </trkpt>
      <trkpt lat="50.62071" lon="3.50462">
        <ele>41.374641</ele>
        <time>2019-09-17T12:38:31.162Z</time>
      </trkpt>
      <trkpt lat="50.62104" lon="3.50473">
        <ele>40.927271</ele>
        <time>2019-09-17T12:38:35.835Z</time>
      </trkpt>
      <trkpt lat="50.62108" lon="3.50471">
        <ele>40.866702</ele>
        <time>2019-09-17T12:38:36.484Z</time>
      </trkpt>
      <trkpt lat="50.62114" lon="3.5046">
        <ele>40.761707</ele>
        <time>2019-09-17T12:38:37.858Z</time>
      </trkpt>
      <trkpt lat="50.62118" lon="3.5044">
        <ele>40.642719</ele>
        <time>2019-09-17T12:38:39.716Z</time>
      </trkpt>
      <trkpt lat="50.6212" lon="3.5043">
        <ele>40.581139</ele>
        <time>2019-09-17T12:38:40.591Z</time>
      </trkpt>
      <trkpt lat="50.62128" lon="3.50396">
        <ele>40.364514</ele>
        <time>2019-09-17T12:38:43.939Z</time>
      </trkpt>
      <trkpt lat="50.62131" lon="3.50382">
        <ele>40.281994</ele>
        <time>2019-09-17T12:38:45.229Z</time>
      </trkpt>
      <trkpt lat="50.62134" lon="3.50375">
        <ele>40.229522</ele>
        <time>2019-09-17T12:38:45.983Z</time>
      </trkpt>
      <trkpt lat="50.62141" lon="3.50368">
        <ele>40.154362</ele>
        <time>2019-09-17T12:38:47.169Z</time>
      </trkpt>
      <trkpt lat="50.62153" lon="3.50361">
        <ele>40.037923</ele>
        <time>2019-09-17T12:38:49.144Z</time>
      </trkpt>
      <trkpt lat="50.62168" lon="3.50358">
        <ele>39.895328</ele>
        <time>2019-09-17T12:38:51.332Z</time>
      </trkpt>
      <trkpt lat="50.62227" lon="3.5036">
        <ele>39.357035</ele>
        <time>2019-09-17T12:39:00.309Z</time>
      </trkpt>
      <trkpt lat="50.62255" lon="3.50359">
        <ele>39.18714</ele>
        <time>2019-09-17T12:39:04.661Z</time>
      </trkpt>
      <trkpt lat="50.62344" lon="3.50352">
        <ele>39.864139</ele>
        <time>2019-09-17T12:39:21.022Z</time>
      </trkpt>
      <trkpt lat="50.62374" lon="3.50356">
        <ele>40.094005</ele>
        <time>2019-09-17T12:39:27.898Z</time>
      </trkpt>
      <trkpt lat="50.62404" lon="3.5037">
        <ele>40.333458</ele>
        <time>2019-09-17T12:39:35.697Z</time>
      </trkpt>
      <trkpt lat="50.62434" lon="3.50384">
        <ele>40.71305</ele>
        <time>2019-09-17T12:39:44.589Z</time>
      </trkpt>
      <trkpt lat="50.62456" lon="3.50403">
        <ele>41.416538</ele>
        <time>2019-09-17T12:39:52.202Z</time>
      </trkpt>
      <trkpt lat="50.62492" lon="3.5045">
        <ele>42.699668</ele>
        <time>2019-09-17T12:40:06.172Z</time>
      </trkpt>
      <trkpt lat="50.62542" lon="3.50504">
        <ele>44.350443</ele>
        <time>2019-09-17T12:40:25.314Z</time>
      </trkpt>
      <trkpt lat="50.62517" lon="3.50542">
        <ele>45.309296</ele>
        <time>2019-09-17T12:40:39.167Z</time>
      </trkpt>
      <trkpt lat="50.62495" lon="3.50585">
        <ele>46.382954</ele>
        <time>2019-09-17T12:40:53.214Z</time>
      </trkpt>
      <trkpt lat="50.62441" lon="3.50728">
        <ele>49.773854</ele>
        <time>2019-09-17T12:41:36.322Z</time>
      </trkpt>
      <trkpt lat="50.62436" lon="3.50782">
        <ele>50.894615</ele>
        <time>2019-09-17T12:41:50.017Z</time>
      </trkpt>
      <trkpt lat="50.62449" lon="3.50879">
        <ele>51.764161</ele>
        <time>2019-09-17T12:42:13.103Z</time>
      </trkpt>
      <trkpt lat="50.62448" lon="3.50933">
        <ele>52.118131</ele>
        <time>2019-09-17T12:42:24.603Z</time>
      </trkpt>
      <trkpt lat="50.62448" lon="3.51013">
        <ele>52.640776</ele>
        <time>2019-09-17T12:42:38.623Z</time>
      </trkpt>
      <trkpt lat="50.62459" lon="3.51063">
        <ele>52.987689</ele>
        <time>2019-09-17T12:42:46.177Z</time>
      </trkpt>
      <trkpt lat="50.62446" lon="3.51196">
        <ele>51.059122</ele>
        <time>2019-09-17T12:43:02.590Z</time>
      </trkpt>
      <trkpt lat="50.62447" lon="3.51211">
        <ele>50.813347</ele>
        <time>2019-09-17T12:43:04.144Z</time>
      </trkpt>
      <trkpt lat="50.62425" lon="3.51221">
        <ele>50.198036</ele>
        <time>2019-09-17T12:43:08.285Z</time>
      </trkpt>
      <trkpt lat="50.62364" lon="3.51244">
        <ele>48.562272</ele>
        <time>2019-09-17T12:43:18.962Z</time>
      </trkpt>
      <trkpt lat="50.62355" lon="3.51246">
        <ele>48.320229</ele>
        <time>2019-09-17T12:43:20.513Z</time>
      </trkpt>
      <trkpt lat="50.62349" lon="3.51273">
        <ele>47.884189</ele>
        <time>2019-09-17T12:43:23.598Z</time>
      </trkpt>
      <trkpt lat="50.6234" lon="3.51376">
        <ele>46.336145</ele>
        <time>2019-09-17T12:43:35.046Z</time>
      </trkpt>
      <trkpt lat="50.62334" lon="3.51401">
        <ele>45.934937</ele>
        <time>2019-09-17T12:43:38.261Z</time>
      </trkpt>
      <trkpt lat="50.62325" lon="3.51411">
        <ele>45.658683</ele>
        <time>2019-09-17T12:43:40.368Z</time>
      </trkpt>
      <trkpt lat="50.62259" lon="3.51449">
        <ele>44.082325</ele>
        <time>2019-09-17T12:43:54.050Z</time>
      </trkpt>
      <trkpt lat="50.62259" lon="3.51449">
        <ele>44.082325</ele>
        <time>2019-09-17T12:43:54.124Z</time>
      </trkpt>
      <trkpt lat="50.62159" lon="3.51468">
        <ele>44.014156</ele>
        <time>2019-09-17T12:44:19.938Z</time>
      </trkpt>
      <trkpt lat="50.62059" lon="3.51483">
        <ele>43.7687</ele>
        <time>2019-09-17T12:44:45.369Z</time>
      </trkpt>
      <trkpt lat="50.62064" lon="3.51531">
        <ele>43.526538</ele>
        <time>2019-09-17T12:44:52.601Z</time>
      </trkpt>
      <trkpt lat="50.62146" lon="3.5186">
        <ele>42.089874</ele>
        <time>2019-09-17T12:45:38.575Z</time>
      </trkpt>
      <trkpt lat="50.62159" lon="3.51883">
        <ele>41.99984</ele>
        <time>2019-09-17T12:45:42.634Z</time>
      </trkpt>
      <trkpt lat="50.62248" lon="3.5196">
        <ele>42.571415</ele>
        <time>2019-09-17T12:46:09.258Z</time>
      </trkpt>
      <trkpt lat="50.62564" lon="3.52137">
        <ele>50.72073</ele>
        <time>2019-09-17T12:48:14.384Z</time>
      </trkpt>
      <trkpt lat="50.62586" lon="3.52161">
        <ele>51.336906</ele>
        <time>2019-09-17T12:48:24.220Z</time>
      </trkpt>
      <trkpt lat="50.62645" lon="3.52268">
        <ele>53.435939</ele>
        <time>2019-09-17T12:48:57.020Z</time>
      </trkpt>
      <trkpt lat="50.62664" lon="3.52291">
        <ele>54.001153</ele>
        <time>2019-09-17T12:49:05.472Z</time>
      </trkpt>
      <trkpt lat="50.62766" lon="3.52359">
        <ele>55.412202</ele>
        <time>2019-09-17T12:49:40.211Z</time>
      </trkpt>
      <trkpt lat="50.628" lon="3.52382">
        <ele>55.793822</ele>
        <time>2019-09-17T12:49:50.788Z</time>
      </trkpt>
      <trkpt lat="50.62956" lon="3.52488">
        <ele>57.042386</ele>
        <time>2019-09-17T12:50:34.153Z</time>
      </trkpt>
      <trkpt lat="50.63039" lon="3.5256">
        <ele>58.183754</ele>
        <time>2019-09-17T12:51:01.665Z</time>
      </trkpt>
      <trkpt lat="50.63044" lon="3.52566">
        <ele>58.331835</ele>
        <time>2019-09-17T12:51:03.500Z</time>
      </trkpt>
      <trkpt lat="50.63051" lon="3.52546">
        <ele>58.672098</ele>
        <time>2019-09-17T12:51:08.260Z</time>
      </trkpt>
      <trkpt lat="50.63071" lon="3.52452">
        <ele>60.204872</ele>
        <time>2019-09-17T12:51:31.022Z</time>
      </trkpt>
      <trkpt lat="50.63087" lon="3.52385">
        <ele>61.295179</ele>
        <time>2019-09-17T12:51:48.874Z</time>
      </trkpt>
      <trkpt lat="50.63081" lon="3.52377">
        <ele>61.49454</ele>
        <time>2019-09-17T12:51:52.694Z</time>
      </trkpt>
      <trkpt lat="50.6305" lon="3.52349">
        <ele>62.658136</ele>
        <time>2019-09-17T12:52:07.649Z</time>
      </trkpt>
      <trkpt lat="50.6304" lon="3.52327">
        <ele>63.329541</ele>
        <time>2019-09-17T12:52:14.781Z</time>
      </trkpt>
      <trkpt lat="50.62992" lon="3.5206">
        <ele>69.683183</ele>
        <time>2019-09-17T12:53:29.886Z</time>
      </trkpt>
      <trkpt lat="50.62994" lon="3.52041">
        <ele>70.077107</ele>
        <time>2019-09-17T12:53:34.926Z</time>
      </trkpt>
      <trkpt lat="50.63002" lon="3.52022">
        <ele>70.542178</ele>
        <time>2019-09-17T12:53:40.812Z</time>
      </trkpt>
      <trkpt lat="50.63173" lon="3.5189">
        <ele>76.740757</ele>
        <time>2019-09-17T12:54:53.031Z</time>
      </trkpt>
      <trkpt lat="50.63173" lon="3.5189">
        <ele>76.740757</ele>
        <time>2019-09-17T12:54:53.118Z</time>
      </trkpt>
      <trkpt lat="50.63236" lon="3.51857">
        <ele>79.013218</ele>
        <time>2019-09-17T12:55:20.402Z</time>
      </trkpt>
      <trkpt lat="50.63242" lon="3.51844">
        <ele>79.353211</ele>
        <time>2019-09-17T12:55:25.218Z</time>
      </trkpt>
      <trkpt lat="50.63236" lon="3.51807">
        <ele>80.187793</ele>
        <time>2019-09-17T12:55:35.023Z</time>
      </trkpt>
      <trkpt lat="50.63217" lon="3.51766">
        <ele>81.258269</ele>
        <time>2019-09-17T12:55:48.976Z</time>
      </trkpt>
      <trkpt lat="50.63212" lon="3.51736">
        <ele>81.90954</ele>
        <time>2019-09-17T12:55:58.896Z</time>
      </trkpt>
      <trkpt lat="50.63209" lon="3.51712">
        <ele>82.431815</ele>
        <time>2019-09-17T12:56:05.660Z</time>
      </trkpt>
      <trkpt lat="50.63214" lon="3.51643">
        <ele>83.910144</ele>
        <time>2019-09-17T12:56:24.200Z</time>
      </trkpt>
      <trkpt lat="50.6322" lon="3.51606">
        <ele>84.7304</ele>
        <time>2019-09-17T12:56:34.569Z</time>
      </trkpt>
      <trkpt lat="50.63237" lon="3.51559">
        <ele>85.870353</ele>
        <time>2019-09-17T12:56:47.658Z</time>
      </trkpt>
      <trkpt lat="50.63264" lon="3.51514">
        <ele>86.113905</ele>
        <time>2019-09-17T12:57:00.974Z</time>
      </trkpt>
      <trkpt lat="50.63274" lon="3.51523">
        <ele>86.000393</ele>
        <time>2019-09-17T12:57:03.616Z</time>
      </trkpt>
      <trkpt lat="50.63317" lon="3.51535">
        <ele>85.577227</ele>
        <time>2019-09-17T12:57:14.463Z</time>
      </trkpt>
      <trkpt lat="50.63488" lon="3.51483">
        <ele>82.080482</ele>
        <time>2019-09-17T12:57:45.956Z</time>
      </trkpt>
      <trkpt lat="50.63509" lon="3.5148">
        <ele>81.396455</ele>
        <time>2019-09-17T12:57:49.385Z</time>
      </trkpt>
      <trkpt lat="50.63533" lon="3.51477">
        <ele>80.56681</ele>
        <time>2019-09-17T12:57:53.515Z</time>
      </trkpt>
      <trkpt lat="50.63586" lon="3.51442">
        <ele>78.635853</ele>
        <time>2019-09-17T12:58:03.260Z</time>
      </trkpt>
      <trkpt lat="50.63624" lon="3.51422">
        <ele>77.309662</ele>
        <time>2019-09-17T12:58:09.990Z</time>
      </trkpt>
      <trkpt lat="50.63638" lon="3.51466">
        <ele>76.271633</ele>
        <time>2019-09-17T12:58:13.684Z</time>
      </trkpt>
      <trkpt lat="50.63644" lon="3.51539">
        <ele>74.716992</ele>
        <time>2019-09-17T12:58:19.331Z</time>
      </trkpt>
      <trkpt lat="50.6369" lon="3.51979">
        <ele>66.46688</ele>
        <time>2019-09-17T12:58:54.569Z</time>
      </trkpt>
      <trkpt lat="50.63745" lon="3.52198">
        <ele>62.654234</ele>
        <time>2019-09-17T12:59:13.752Z</time>
      </trkpt>
      <trkpt lat="50.6376" lon="3.52321">
        <ele>60.096268</ele>
        <time>2019-09-17T12:59:23.674Z</time>
      </trkpt>
      <trkpt lat="50.63759" lon="3.5246">
        <ele>57.240017</ele>
        <time>2019-09-17T12:59:34.226Z</time>
      </trkpt>
      <trkpt lat="50.63776" lon="3.52578">
        <ele>54.233931</ele>
        <time>2019-09-17T12:59:43.200Z</time>
      </trkpt>
      <trkpt lat="50.63799" lon="3.5271">
        <ele>50.76763</ele>
        <time>2019-09-17T12:59:53.390Z</time>
      </trkpt>
      <trkpt lat="50.63799" lon="3.5271">
        <ele>50.76763</ele>
        <time>2019-09-17T12:59:53.395Z</time>
      </trkpt>
      <trkpt lat="50.63799" lon="3.5271">
        <ele>50.76763</ele>
        <time>2019-09-17T12:59:53.435Z</time>
      </trkpt>
      <trkpt lat="50.63807" lon="3.52845">
        <ele>48.209806</ele>
        <time>2019-09-17T13:00:03.655Z</time>
      </trkpt>
      <trkpt lat="50.63812" lon="3.53167">
        <ele>44.356246</ele>
        <time>2019-09-17T13:00:30.513Z</time>
      </trkpt>
      <trkpt lat="50.63813" lon="3.53251">
        <ele>43.894991</ele>
        <time>2019-09-17T13:00:38.988Z</time>
      </trkpt>
      <trkpt lat="50.6381" lon="3.53265">
        <ele>43.81622</ele>
        <time>2019-09-17T13:00:40.876Z</time>
      </trkpt>
      <trkpt lat="50.63771" lon="3.53339">
        <ele>44.451208</ele>
        <time>2019-09-17T13:00:54.416Z</time>
      </trkpt>
      <trkpt lat="50.63723" lon="3.53429">
        <ele>46.466021</ele>
        <time>2019-09-17T13:01:16.958Z</time>
      </trkpt>
      <trkpt lat="50.63705" lon="3.53461">
        <ele>47.20207</ele>
        <time>2019-09-17T13:01:26.455Z</time>
      </trkpt>
      <trkpt lat="50.63703" lon="3.53497">
        <ele>47.824807</ele>
        <time>2019-09-17T13:01:35.603Z</time>
      </trkpt>
      <trkpt lat="50.637" lon="3.53627">
        <ele>50.51627</ele>
        <time>2019-09-17T13:02:06.663Z</time>
      </trkpt>
      <trkpt lat="50.63698" lon="3.53769">
        <ele>53.623393</ele>
        <time>2019-09-17T13:02:38.369Z</time>
      </trkpt>
      <trkpt lat="50.63693" lon="3.53782">
        <ele>53.952048</ele>
        <time>2019-09-17T13:02:41.100Z</time>
      </trkpt>
      <trkpt lat="50.6367" lon="3.53812">
        <ele>54.784771</ele>
        <time>2019-09-17T13:02:49.733Z</time>
      </trkpt>
      <trkpt lat="50.63641" lon="3.53862">
        <ele>55.307316</ele>
        <time>2019-09-17T13:03:01.439Z</time>
      </trkpt>
      <trkpt lat="50.636" lon="3.53954">
        <ele>56.181159</ele>
        <time>2019-09-17T13:03:17.621Z</time>
      </trkpt>
      <trkpt lat="50.63593" lon="3.53977">
        <ele>56.380294</ele>
        <time>2019-09-17T13:03:20.541Z</time>
      </trkpt>
      <trkpt lat="50.63574" lon="3.54023">
        <ele>56.800533</ele>
        <time>2019-09-17T13:03:27.307Z</time>
      </trkpt>
      <trkpt lat="50.63471" lon="3.5415">
        <ele>57.537532</ele>
        <time>2019-09-17T13:03:54.172Z</time>
      </trkpt>
      <trkpt lat="50.63458" lon="3.54169">
        <ele>57.632377</ele>
        <time>2019-09-17T13:03:57.927Z</time>
      </trkpt>
      <trkpt lat="50.63454" lon="3.54191">
        <ele>57.708331</ele>
        <time>2019-09-17T13:04:00.908Z</time>
      </trkpt>
      <trkpt lat="50.63463" lon="3.54227">
        <ele>57.843437</ele>
        <time>2019-09-17T13:04:05.943Z</time>
      </trkpt>
      <trkpt lat="50.63466" lon="3.5425">
        <ele>57.93456</ele>
        <time>2019-09-17T13:04:08.906Z</time>
      </trkpt>
      <trkpt lat="50.63463" lon="3.54271">
        <ele>58.023046</ele>
        <time>2019-09-17T13:04:11.859Z</time>
      </trkpt>
      <trkpt lat="50.63455" lon="3.54306">
        <ele>58.168275</ele>
        <time>2019-09-17T13:04:16.580Z</time>
      </trkpt>
      <trkpt lat="50.63432" lon="3.54337">
        <ele>58.359443</ele>
        <time>2019-09-17T13:04:24.968Z</time>
      </trkpt>
      <trkpt lat="50.63363" lon="3.5444">
        <ele>58.950927</ele>
        <time>2019-09-17T13:04:50.036Z</time>
      </trkpt>
      <trkpt lat="50.63253" lon="3.5456">
        <ele>61.191412</ele>
        <time>2019-09-17T13:05:30.394Z</time>
      </trkpt>
      <trkpt lat="50.63196" lon="3.5461">
        <ele>62.816684</ele>
        <time>2019-09-17T13:05:55.409Z</time>
      </trkpt>
      <trkpt lat="50.63152" lon="3.5464">
        <ele>64.90679</ele>
        <time>2019-09-17T13:06:15.469Z</time>
      </trkpt>
      <trkpt lat="50.6313" lon="3.54655">
        <ele>65.995478</ele>
        <time>2019-09-17T13:06:26.629Z</time>
      </trkpt>
      <trkpt lat="50.63011" lon="3.54705">
        <ele>71.360219</ele>
        <time>2019-09-17T13:07:28.563Z</time>
      </trkpt>
      <trkpt lat="50.62952" lon="3.54767">
        <ele>74.346175</ele>
        <time>2019-09-17T13:08:01.931Z</time>
      </trkpt>
      <trkpt lat="50.62929" lon="3.54796">
        <ele>75.60038</ele>
        <time>2019-09-17T13:08:14.803Z</time>
      </trkpt>
      <trkpt lat="50.62925" lon="3.54801">
        <ele>75.79345</ele>
        <time>2019-09-17T13:08:16.533Z</time>
      </trkpt>
      <trkpt lat="50.62857" lon="3.54899">
        <ele>78.167059</ele>
        <time>2019-09-17T13:08:51.159Z</time>
      </trkpt>
      <trkpt lat="50.62807" lon="3.55009">
        <ele>79.272137</ele>
        <time>2019-09-17T13:09:16.388Z</time>
      </trkpt>
      <trkpt lat="50.62784" lon="3.55049">
        <ele>79.715071</ele>
        <time>2019-09-17T13:09:24.699Z</time>
      </trkpt>
      <trkpt lat="50.62754" lon="3.55076">
        <ele>79.559923</ele>
        <time>2019-09-17T13:09:32.705Z</time>
      </trkpt>
      <trkpt lat="50.6273" lon="3.55099">
        <ele>79.29386</ele>
        <time>2019-09-17T13:09:39.008Z</time>
      </trkpt>
      <trkpt lat="50.6274" lon="3.55119">
        <ele>79.137403</ele>
        <time>2019-09-17T13:09:42.549Z</time>
      </trkpt>
      <trkpt lat="50.62749" lon="3.55147">
        <ele>78.955215</ele>
        <time>2019-09-17T13:09:46.761Z</time>
      </trkpt>
      <trkpt lat="50.6274" lon="3.55167">
        <ele>78.80831</ele>
        <time>2019-09-17T13:09:49.946Z</time>
      </trkpt>
      <trkpt lat="50.62668" lon="3.5534">
        <ele>77.074794</ele>
        <time>2019-09-17T13:10:15.776Z</time>
      </trkpt>
      <trkpt lat="50.62574" lon="3.55534">
        <ele>74.477689</ele>
        <time>2019-09-17T13:10:45.150Z</time>
      </trkpt>
      <trkpt lat="50.62515" lon="3.55682">
        <ele>73.091642</ele>
        <time>2019-09-17T13:11:07.482Z</time>
      </trkpt>
      <trkpt lat="50.62433" lon="3.55885">
        <ele>72.500095</ele>
        <time>2019-09-17T13:11:41.927Z</time>
      </trkpt>
      <trkpt lat="50.62378" lon="3.55996">
        <ele>72.651751</ele>
        <time>2019-09-17T13:12:05.858Z</time>
      </trkpt>
      <trkpt lat="50.62365" lon="3.56023">
        <ele>72.832967</ele>
        <time>2019-09-17T13:12:11.555Z</time>
      </trkpt>
      <trkpt lat="50.62345" lon="3.5606">
        <ele>73.098134</ele>
        <time>2019-09-17T13:12:20.229Z</time>
      </trkpt>
      <trkpt lat="50.62339" lon="3.56084">
        <ele>73.235817</ele>
        <time>2019-09-17T13:12:25.223Z</time>
      </trkpt>
      <trkpt lat="50.62304" lon="3.56305">
        <ele>74.175159</ele>
        <time>2019-09-17T13:13:07.759Z</time>
      </trkpt>
      <trkpt lat="50.62259" lon="3.5644">
        <ele>74.523686</ele>
        <time>2019-09-17T13:13:32.404Z</time>
      </trkpt>
      <trkpt lat="50.62249" lon="3.56484">
        <ele>74.560385</ele>
        <time>2019-09-17T13:13:39.109Z</time>
      </trkpt>
      <trkpt lat="50.62244" lon="3.56504">
        <ele>74.448476</ele>
        <time>2019-09-17T13:13:42.201Z</time>
      </trkpt>
      <trkpt lat="50.62217" lon="3.56574">
        <ele>74.02576</ele>
        <time>2019-09-17T13:13:53.427Z</time>
      </trkpt>
      <trkpt lat="50.62213" lon="3.56581">
        <ele>73.974979</ele>
        <time>2019-09-17T13:13:54.699Z</time>
      </trkpt>
      <trkpt lat="50.62188" lon="3.56624">
        <ele>73.673314</ele>
        <time>2019-09-17T13:14:02.393Z</time>
      </trkpt>
      <trkpt lat="50.62124" lon="3.5668">
        <ele>73.101564</ele>
        <time>2019-09-17T13:14:17.303Z</time>
      </trkpt>
      <trkpt lat="50.62076" lon="3.56738">
        <ele>72.809583</ele>
        <time>2019-09-17T13:14:29.981Z</time>
      </trkpt>
      <trkpt lat="50.6206" lon="3.56833">
        <ele>72.511155</ele>
        <time>2019-09-17T13:14:43.823Z</time>
      </trkpt>
      <trkpt lat="50.62102" lon="3.57007">
        <ele>72.876336</ele>
        <time>2019-09-17T13:15:13.873Z</time>
      </trkpt>
      <trkpt lat="50.6211" lon="3.57169">
        <ele>73.781899</ele>
        <time>2019-09-17T13:15:45.277Z</time>
      </trkpt>
      <trkpt lat="50.62108" lon="3.57197">
        <ele>73.946241</ele>
        <time>2019-09-17T13:15:50.870Z</time>
      </trkpt>
      <trkpt lat="50.62075" lon="3.57259">
        <ele>74.441147</ele>
        <time>2019-09-17T13:16:06.613Z</time>
      </trkpt>
      <trkpt lat="50.6204" lon="3.57308">
        <ele>74.899889</ele>
        <time>2019-09-17T13:16:20.807Z</time>
      </trkpt>
      <trkpt lat="50.62016" lon="3.57344">
        <ele>75.221579</ele>
        <time>2019-09-17T13:16:30.132Z</time>
      </trkpt>
      <trkpt lat="50.61972" lon="3.57399">
        <ele>75.585219</ele>
        <time>2019-09-17T13:16:45.174Z</time>
      </trkpt>
      <trkpt lat="50.61964" lon="3.57409">
        <ele>75.575281</ele>
        <time>2019-09-17T13:16:47.889Z</time>
      </trkpt>
      <trkpt lat="50.61911" lon="3.57452">
        <ele>75.516594</ele>
        <time>2019-09-17T13:17:02.169Z</time>
      </trkpt>
      <trkpt lat="50.61682" lon="3.57687">
        <ele>74.695474</ele>
        <time>2019-09-17T13:18:03.909Z</time>
      </trkpt>
      <trkpt lat="50.61613" lon="3.57688">
        <ele>74.344462</ele>
        <time>2019-09-17T13:18:19.719Z</time>
      </trkpt>
      <trkpt lat="50.61604" lon="3.57685">
        <ele>74.298701</ele>
        <time>2019-09-17T13:18:21.707Z</time>
      </trkpt>
      <trkpt lat="50.61376" lon="3.57629">
        <ele>72.524747</ele>
        <time>2019-09-17T13:19:12.282Z</time>
      </trkpt>
      <trkpt lat="50.61335" lon="3.57651">
        <ele>72.10235</ele>
        <time>2019-09-17T13:19:18.280Z</time>
      </trkpt>
      <trkpt lat="50.61241" lon="3.57712">
        <ele>69.275123</ele>
        <time>2019-09-17T13:19:31.367Z</time>
      </trkpt>
      <trkpt lat="50.61225" lon="3.57715">
        <ele>68.805092</ele>
        <time>2019-09-17T13:19:33.315Z</time>
      </trkpt>
      <trkpt lat="50.61111" lon="3.57701">
        <ele>64.707962</ele>
        <time>2019-09-17T13:19:46.839Z</time>
      </trkpt>
      <trkpt lat="50.61079" lon="3.57704">
        <ele>63.242193</ele>
        <time>2019-09-17T13:19:50.515Z</time>
      </trkpt>
      <trkpt lat="50.61048" lon="3.57727">
        <ele>61.656432</ele>
        <time>2019-09-17T13:19:54.459Z</time>
      </trkpt>
      <trkpt lat="50.60969" lon="3.57755">
        <ele>58.108971</ele>
        <time>2019-09-17T13:20:03.598Z</time>
      </trkpt>
      <trkpt lat="50.60869" lon="3.57808">
        <ele>54.432835</ele>
        <time>2019-09-17T13:20:15.827Z</time>
      </trkpt>
      <trkpt lat="50.60832" lon="3.57806">
        <ele>53.140266</ele>
        <time>2019-09-17T13:20:20.470Z</time>
      </trkpt>
      <trkpt lat="50.60786" lon="3.57791">
        <ele>52.239551</ele>
        <time>2019-09-17T13:20:26.805Z</time>
      </trkpt>
      <trkpt lat="50.60754" lon="3.578">
        <ele>52.222097</ele>
        <time>2019-09-17T13:20:31.574Z</time>
      </trkpt>
      <trkpt lat="50.60732" lon="3.57803">
        <ele>52.210182</ele>
        <time>2019-09-17T13:20:35.553Z</time>
      </trkpt>
      <trkpt lat="50.60687" lon="3.57804">
        <ele>52.185782</ele>
        <time>2019-09-17T13:20:44.404Z</time>
      </trkpt>
      <trkpt lat="50.60669" lon="3.57792">
        <ele>52.175297</ele>
        <time>2019-09-17T13:20:48.778Z</time>
      </trkpt>
      <trkpt lat="50.60627" lon="3.57744">
        <ele>52.348863</ele>
        <time>2019-09-17T13:21:00.595Z</time>
      </trkpt>
      <trkpt lat="50.60603" lon="3.57719">
        <ele>52.788787</ele>
        <time>2019-09-17T13:21:08.119Z</time>
      </trkpt>
      <trkpt lat="50.60607" lon="3.57697">
        <ele>53.001861</ele>
        <time>2019-09-17T13:21:11.653Z</time>
      </trkpt>
      <trkpt lat="50.60635" lon="3.57611">
        <ele>53.922952</ele>
        <time>2019-09-17T13:21:27.122Z</time>
      </trkpt>
      <trkpt lat="50.60705" lon="3.57461">
        <ele>55.533846</ele>
        <time>2019-09-17T13:21:57.926Z</time>
      </trkpt>
      <trkpt lat="50.60687" lon="3.57453">
        <ele>55.760416</ele>
        <time>2019-09-17T13:22:03.238Z</time>
      </trkpt>
      <trkpt lat="50.60601" lon="3.57424">
        <ele>56.809008</ele>
        <time>2019-09-17T13:22:22.975Z</time>
      </trkpt>
      <trkpt lat="50.60529" lon="3.57392">
        <ele>56.808457</ele>
        <time>2019-09-17T13:22:37.317Z</time>
      </trkpt>
      <trkpt lat="50.60498" lon="3.5739">
        <ele>56.704916</ele>
        <time>2019-09-17T13:22:42.121Z</time>
      </trkpt>
      <trkpt lat="50.60418" lon="3.5738">
        <ele>56.43159</ele>
        <time>2019-09-17T13:22:54.510Z</time>
      </trkpt>
      <trkpt lat="50.60382" lon="3.57366">
        <ele>56.387546</ele>
        <time>2019-09-17T13:22:59.704Z</time>
      </trkpt>
      <trkpt lat="50.60371" lon="3.57355">
        <ele>56.383112</ele>
        <time>2019-09-17T13:23:01.472Z</time>
      </trkpt>
      <trkpt lat="50.60293" lon="3.57211">
        <ele>56.3416</ele>
        <time>2019-09-17T13:23:23.834Z</time>
      </trkpt>
      <trkpt lat="50.60273" lon="3.57196">
        <ele>56.343008</ele>
        <time>2019-09-17T13:23:28.238Z</time>
      </trkpt>
      <trkpt lat="50.60266" lon="3.57193">
        <ele>56.378343</ele>
        <time>2019-09-17T13:23:30.069Z</time>
      </trkpt>
      <trkpt lat="50.6026" lon="3.57191">
        <ele>56.408311</ele>
        <time>2019-09-17T13:23:31.534Z</time>
      </trkpt>
      <trkpt lat="50.60223" lon="3.57198">
        <ele>56.588365</ele>
        <time>2019-09-17T13:23:39.743Z</time>
      </trkpt>
      <trkpt lat="50.60186" lon="3.57211">
        <ele>56.770832</ele>
        <time>2019-09-17T13:23:47.905Z</time>
      </trkpt>
      <trkpt lat="50.60096" lon="3.573">
        <ele>57.158885</ele>
        <time>2019-09-17T13:24:08.879Z</time>
      </trkpt>
      <trkpt lat="50.59977" lon="3.5738">
        <ele>56.84674</ele>
        <time>2019-09-17T13:24:29.198Z</time>
      </trkpt>
      <trkpt lat="50.5991" lon="3.57447">
        <ele>57.07865</ele>
        <time>2019-09-17T13:24:43.414Z</time>
      </trkpt>
      <trkpt lat="50.599" lon="3.57459">
        <ele>57.160699</ele>
        <time>2019-09-17T13:24:45.344Z</time>
      </trkpt>
      <trkpt lat="50.59892" lon="3.57468">
        <ele>57.230583</ele>
        <time>2019-09-17T13:24:48.082Z</time>
      </trkpt>
      <trkpt lat="50.59875" lon="3.57476">
        <ele>57.352385</ele>
        <time>2019-09-17T13:24:51.565Z</time>
      </trkpt>
      <trkpt lat="50.59826" lon="3.57458">
        <ele>57.699782</ele>
        <time>2019-09-17T13:25:03.714Z</time>
      </trkpt>
      <trkpt lat="50.59811" lon="3.57459">
        <ele>57.798142</ele>
        <time>2019-09-17T13:25:07.299Z</time>
      </trkpt>
      <trkpt lat="50.5975" lon="3.5748">
        <ele>57.948558</ele>
        <time>2019-09-17T13:25:21.708Z</time>
      </trkpt>
      <trkpt lat="50.59717" lon="3.57484">
        <ele>57.899098</ele>
        <time>2019-09-17T13:25:28.371Z</time>
      </trkpt>
      <trkpt lat="50.59676" lon="3.57483">
        <ele>57.837428</ele>
        <time>2019-09-17T13:25:35.941Z</time>
      </trkpt>
      <trkpt lat="50.59648" lon="3.57499">
        <ele>57.792042</ele>
        <time>2019-09-17T13:25:40.630Z</time>
      </trkpt>
      <trkpt lat="50.59561" lon="3.57581">
        <ele>56.34944</ele>
        <time>2019-09-17T13:25:54.573Z</time>
      </trkpt>
      <trkpt lat="50.59508" lon="3.57612">
        <ele>55.038236</ele>
        <time>2019-09-17T13:26:01.468Z</time>
      </trkpt>
      <trkpt lat="50.59448" lon="3.57631">
        <ele>53.603597</ele>
        <time>2019-09-17T13:26:09.263Z</time>
      </trkpt>
      <trkpt lat="50.59439" lon="3.57632">
        <ele>53.418121</ele>
        <time>2019-09-17T13:26:10.276Z</time>
      </trkpt>
      <trkpt lat="50.59434" lon="3.57628">
        <ele>53.293901</ele>
        <time>2019-09-17T13:26:11.009Z</time>
      </trkpt>
      <trkpt lat="50.59367" lon="3.57524">
        <ele>51.325804</ele>
        <time>2019-09-17T13:26:23.172Z</time>
      </trkpt>
      <trkpt lat="50.59295" lon="3.57512">
        <ele>49.809145</ele>
        <time>2019-09-17T13:26:32.942Z</time>
      </trkpt>
      <trkpt lat="50.59284" lon="3.5751">
        <ele>49.703054</ele>
        <time>2019-09-17T13:26:34.335Z</time>
      </trkpt>
      <trkpt lat="50.59299" lon="3.57623">
        <ele>49.140268</ele>
        <time>2019-09-17T13:26:44.960Z</time>
      </trkpt>
      <trkpt lat="50.59212" lon="3.57683">
        <ele>48.409342</ele>
        <time>2019-09-17T13:27:06.203Z</time>
      </trkpt>
      <trkpt lat="50.59184" lon="3.57701">
        <ele>48.519952</ele>
        <time>2019-09-17T13:27:13.992Z</time>
      </trkpt>
      <trkpt lat="50.59177" lon="3.57705">
        <ele>48.558817</ele>
        <time>2019-09-17T13:27:16.066Z</time>
      </trkpt>
      <trkpt lat="50.59156" lon="3.57716">
        <ele>48.667917</ele>
        <time>2019-09-17T13:27:21.651Z</time>
      </trkpt>
      <trkpt lat="50.59114" lon="3.57724">
        <ele>48.878785</ele>
        <time>2019-09-17T13:27:32.676Z</time>
      </trkpt>
      <trkpt lat="50.59055" lon="3.57737">
        <ele>49.171137</ele>
        <time>2019-09-17T13:27:49.090Z</time>
      </trkpt>
      <trkpt lat="50.59041" lon="3.57748">
        <ele>49.25022</ele>
        <time>2019-09-17T13:27:53.892Z</time>
      </trkpt>
      <trkpt lat="50.58871" lon="3.57886">
        <ele>51.543216</ele>
        <time>2019-09-17T13:28:52.048Z</time>
      </trkpt>
      <trkpt lat="50.58813" lon="3.5791">
        <ele>52.081374</ele>
        <time>2019-09-17T13:29:09.701Z</time>
      </trkpt>
      <trkpt lat="50.58759" lon="3.5792">
        <ele>52.567123</ele>
        <time>2019-09-17T13:29:25.326Z</time>
      </trkpt>
      <trkpt lat="50.58728" lon="3.57922">
        <ele>52.845518</ele>
        <time>2019-09-17T13:29:34.147Z</time>
      </trkpt>
      <trkpt lat="50.58574" lon="3.57915">
        <ele>53.444732</ele>
        <time>2019-09-17T13:30:14.640Z</time>
      </trkpt>
      <trkpt lat="50.58574" lon="3.57915">
        <ele>53.444732</ele>
        <time>2019-09-17T13:30:14.653Z</time>
      </trkpt>
      <trkpt lat="50.58533" lon="3.57924">
        <ele>53.558573</ele>
        <time>2019-09-17T13:30:24.489Z</time>
      </trkpt>
      <trkpt lat="50.58519" lon="3.57935">
        <ele>53.580588</ele>
        <time>2019-09-17T13:30:28.264Z</time>
      </trkpt>
      <trkpt lat="50.58512" lon="3.57942">
        <ele>53.551047</ele>
        <time>2019-09-17T13:30:30.416Z</time>
      </trkpt>
      <trkpt lat="50.58505" lon="3.57949">
        <ele>53.521627</ele>
        <time>2019-09-17T13:30:32.215Z</time>
      </trkpt>
      <trkpt lat="50.58491" lon="3.5797">
        <ele>53.454692</ele>
        <time>2019-09-17T13:30:36.777Z</time>
      </trkpt>
      <trkpt lat="50.58476" lon="3.5801">
        <ele>53.347925</ele>
        <time>2019-09-17T13:30:43.853Z</time>
      </trkpt>
      <trkpt lat="50.58452" lon="3.58064">
        <ele>53.201171</ele>
        <time>2019-09-17T13:30:53.139Z</time>
      </trkpt>
      <trkpt lat="50.58402" lon="3.58003">
        <ele>52.974416</ele>
        <time>2019-09-17T13:31:06.904Z</time>
      </trkpt>
      <trkpt lat="50.58348" lon="3.57973">
        <ele>52.917719</ele>
        <time>2019-09-17T13:31:19.678Z</time>
      </trkpt>
      <trkpt lat="50.58345" lon="3.57989">
        <ele>52.910903</ele>
        <time>2019-09-17T13:31:22.089Z</time>
      </trkpt>
      <trkpt lat="50.58345" lon="3.5799">
        <ele>52.910376</ele>
        <time>2019-09-17T13:31:22.243Z</time>
      </trkpt>
      <trkpt lat="50.58332" lon="3.58063">
        <ele>52.878166</ele>
        <time>2019-09-17T13:31:33.989Z</time>
      </trkpt>
      <trkpt lat="50.58314" lon="3.58076">
        <ele>52.864872</ele>
        <time>2019-09-17T13:31:39.117Z</time>
      </trkpt>
      <trkpt lat="50.58283" lon="3.58096">
        <ele>52.842627</ele>
        <time>2019-09-17T13:31:47.397Z</time>
      </trkpt>
      <trkpt lat="50.58257" lon="3.58084">
        <ele>52.930009</ele>
        <time>2019-09-17T13:31:54.311Z</time>
      </trkpt>
      <trkpt lat="50.58232" lon="3.58054">
        <ele>53.238826</ele>
        <time>2019-09-17T13:32:02.559Z</time>
      </trkpt>
      <trkpt lat="50.58198" lon="3.5801">
        <ele>53.671992</ele>
        <time>2019-09-17T13:32:15.186Z</time>
      </trkpt>
      <trkpt lat="50.5809" lon="3.57877">
        <ele>55.154244</ele>
        <time>2019-09-17T13:32:57.382Z</time>
      </trkpt>
      <trkpt lat="50.58072" lon="3.57854">
        <ele>55.451119</ele>
        <time>2019-09-17T13:33:04.741Z</time>
      </trkpt>
      <trkpt lat="50.58031" lon="3.57803">
        <ele>56.127805</ele>
        <time>2019-09-17T13:33:20.477Z</time>
      </trkpt>
      <trkpt lat="50.58018" lon="3.57788">
        <ele>56.33162</ele>
        <time>2019-09-17T13:33:25.583Z</time>
      </trkpt>
      <trkpt lat="50.57955" lon="3.57699">
        <ele>57.327263</ele>
        <time>2019-09-17T13:33:50.700Z</time>
      </trkpt>
      <trkpt lat="50.57779" lon="3.57415">
        <ele>59.761456</ele>
        <time>2019-09-17T13:35:04.091Z</time>
      </trkpt>
      <trkpt lat="50.57735" lon="3.57343">
        <ele>60.308662</ele>
        <time>2019-09-17T13:35:21.734Z</time>
      </trkpt>
      <trkpt lat="50.57711" lon="3.57305">
        <ele>60.464381</ele>
        <time>2019-09-17T13:35:31.135Z</time>
      </trkpt>
      <trkpt lat="50.57699" lon="3.57293">
        <ele>60.51523</ele>
        <time>2019-09-17T13:35:34.604Z</time>
      </trkpt>
      <trkpt lat="50.57685" lon="3.57295">
        <ele>60.566536</ele>
        <time>2019-09-17T13:35:38.433Z</time>
      </trkpt>
      <trkpt lat="50.57677" lon="3.57303">
        <ele>60.599742</ele>
        <time>2019-09-17T13:35:40.968Z</time>
      </trkpt>
      <trkpt lat="50.57672" lon="3.57318">
        <ele>60.638599</ele>
        <time>2019-09-17T13:35:43.515Z</time>
      </trkpt>
      <trkpt lat="50.57663" lon="3.57376">
        <ele>60.779417</ele>
        <time>2019-09-17T13:35:53.520Z</time>
      </trkpt>
      <trkpt lat="50.57651" lon="3.57396">
        <ele>60.84196</ele>
        <time>2019-09-17T13:35:58.024Z</time>
      </trkpt>
      <trkpt lat="50.5753" lon="3.57323">
        <ele>61.525367</ele>
        <time>2019-09-17T13:36:30.804Z</time>
      </trkpt>
      <trkpt lat="50.57514" lon="3.57325">
        <ele>61.629978</ele>
        <time>2019-09-17T13:36:35.476Z</time>
      </trkpt>
      <trkpt lat="50.57474" lon="3.57344">
        <ele>61.892325</ele>
        <time>2019-09-17T13:36:47.143Z</time>
      </trkpt>
      <trkpt lat="50.57426" lon="3.57372">
        <ele>62.278668</ele>
        <time>2019-09-17T13:37:01.913Z</time>
      </trkpt>
      <trkpt lat="50.57397" lon="3.57303">
        <ele>62.929733</ele>
        <time>2019-09-17T13:37:14.220Z</time>
      </trkpt>
      <trkpt lat="50.57358" lon="3.57216">
        <ele>63.784647</ele>
        <time>2019-09-17T13:37:30.792Z</time>
      </trkpt>
      <trkpt lat="50.57353" lon="3.57203">
        <ele>63.899144</ele>
        <time>2019-09-17T13:37:33.186Z</time>
      </trkpt>
      <trkpt lat="50.57352" lon="3.57194">
        <ele>63.975909</ele>
        <time>2019-09-17T13:37:34.791Z</time>
      </trkpt>
      <trkpt lat="50.57365" lon="3.57123">
        <ele>64.539328</ele>
        <time>2019-09-17T13:37:46.063Z</time>
      </trkpt>
      <trkpt lat="50.57361" lon="3.57103">
        <ele>64.684862</ele>
        <time>2019-09-17T13:37:49.178Z</time>
      </trkpt>
      <trkpt lat="50.57274" lon="3.56941">
        <ele>66.189793</ele>
        <time>2019-09-17T13:38:20.810Z</time>
      </trkpt>
      <trkpt lat="50.57194" lon="3.56777">
        <ele>66.713039</ele>
        <time>2019-09-17T13:38:48.583Z</time>
      </trkpt>
      <trkpt lat="50.57163" lon="3.5671">
        <ele>66.867032</ele>
        <time>2019-09-17T13:38:57.512Z</time>
      </trkpt>
      <trkpt lat="50.57116" lon="3.56609">
        <ele>65.983956</ele>
        <time>2019-09-17T13:39:09.576Z</time>
      </trkpt>
      <trkpt lat="50.57081" lon="3.56548">
        <ele>65.255768</ele>
        <time>2019-09-17T13:39:16.727Z</time>
      </trkpt>
      <trkpt lat="50.57052" lon="3.56466">
        <ele>64.421398</ele>
        <time>2019-09-17T13:39:24.634Z</time>
      </trkpt>
      <trkpt lat="50.57042" lon="3.56362">
        <ele>63.029329</ele>
        <time>2019-09-17T13:39:33.322Z</time>
      </trkpt>
      <trkpt lat="50.5703" lon="3.56333">
        <ele>62.570638</ele>
        <time>2019-09-17T13:39:36.151Z</time>
      </trkpt>
      <trkpt lat="50.5692" lon="3.56103">
        <ele>59.178122</ele>
        <time>2019-09-17T13:40:00.217Z</time>
      </trkpt>
      <trkpt lat="50.5687" lon="3.56039">
        <ele>58.144652</ele>
        <time>2019-09-17T13:40:09.276Z</time>
      </trkpt>
      <trkpt lat="50.56844" lon="3.56019">
        <ele>57.696956</ele>
        <time>2019-09-17T13:40:13.489Z</time>
      </trkpt>
      <trkpt lat="50.56752" lon="3.5596">
        <ele>56.804964</ele>
        <time>2019-09-17T13:40:28.388Z</time>
      </trkpt>
      <trkpt lat="50.56724" lon="3.55934">
        <ele>56.516357</ele>
        <time>2019-09-17T13:40:33.168Z</time>
      </trkpt>
      <trkpt lat="50.56675" lon="3.55895">
        <ele>56.010092</ele>
        <time>2019-09-17T13:40:41.632Z</time>
      </trkpt>
      <trkpt lat="50.56653" lon="3.55885">
        <ele>55.772974</ele>
        <time>2019-09-17T13:40:45.113Z</time>
      </trkpt>
      <trkpt lat="50.56603" lon="3.55849">
        <ele>55.192531</ele>
        <time>2019-09-17T13:40:53.212Z</time>
      </trkpt>
      <trkpt lat="50.56564" lon="3.55809">
        <ele>54.705323</ele>
        <time>2019-09-17T13:40:59.864Z</time>
      </trkpt>
      <trkpt lat="50.56547" lon="3.55782">
        <ele>54.452715</ele>
        <time>2019-09-17T13:41:03.245Z</time>
      </trkpt>
      <trkpt lat="50.56456" lon="3.5558">
        <ele>52.545665</ele>
        <time>2019-09-17T13:41:25.752Z</time>
      </trkpt>
      <trkpt lat="50.56383" lon="3.5546">
        <ele>51.236199</ele>
        <time>2019-09-17T13:41:40.891Z</time>
      </trkpt>
      <trkpt lat="50.56313" lon="3.5538">
        <ele>50.153748</ele>
        <time>2019-09-17T13:41:53.209Z</time>
      </trkpt>
      <trkpt lat="50.56242" lon="3.55321">
        <ele>49.096986</ele>
        <time>2019-09-17T13:42:04.441Z</time>
      </trkpt>
      <trkpt lat="50.56196" lon="3.55248">
        <ele>48.213488</ele>
        <time>2019-09-17T13:42:13.584Z</time>
      </trkpt>
      <trkpt lat="50.56182" lon="3.55226">
        <ele>47.947362</ele>
        <time>2019-09-17T13:42:16.300Z</time>
      </trkpt>
      <trkpt lat="50.56166" lon="3.55201">
        <ele>47.641077</ele>
        <time>2019-09-17T13:42:19.529Z</time>
      </trkpt>
      <trkpt lat="50.56152" lon="3.55189">
        <ele>47.426917</ele>
        <time>2019-09-17T13:42:21.746Z</time>
      </trkpt>
      <trkpt lat="50.56116" lon="3.55181">
        <ele>47.007816</ele>
        <time>2019-09-17T13:42:26.864Z</time>
      </trkpt>
      <trkpt lat="50.55878" lon="3.55061">
        <ele>44.435083</ele>
        <time>2019-09-17T13:43:03.421Z</time>
      </trkpt>
      <trkpt lat="50.55832" lon="3.55038">
        <ele>43.999985</ele>
        <time>2019-09-17T13:43:10.642Z</time>
      </trkpt>
      <trkpt lat="50.55854" lon="3.54922">
        <ele>43.489008</ele>
        <time>2019-09-17T13:43:27.416Z</time>
      </trkpt>
      <trkpt lat="50.55828" lon="3.54903">
        <ele>43.350916</ele>
        <time>2019-09-17T13:43:33.651Z</time>
      </trkpt>
      <trkpt lat="50.55713" lon="3.54836">
        <ele>42.764199</ele>
        <time>2019-09-17T13:44:01.832Z</time>
      </trkpt>
      <trkpt lat="50.55629" lon="3.54826">
        <ele>42.424088</ele>
        <time>2019-09-17T13:44:20.817Z</time>
      </trkpt>
      <trkpt lat="50.55581" lon="3.54823">
        <ele>42.231752</ele>
        <time>2019-09-17T13:44:31.473Z</time>
      </trkpt>
      <trkpt lat="50.554" lon="3.54809">
        <ele>41.838528</ele>
        <time>2019-09-17T13:45:13.015Z</time>
      </trkpt>
      <trkpt lat="50.55364" lon="3.54813">
        <ele>41.814517</ele>
        <time>2019-09-17T13:45:22.169Z</time>
      </trkpt>
      <trkpt lat="50.55207" lon="3.54961">
        <ele>42.653896</ele>
        <time>2019-09-17T13:46:11.082Z</time>
      </trkpt>
      <trkpt lat="50.55191" lon="3.55031">
        <ele>42.843659</ele>
        <time>2019-09-17T13:46:24.282Z</time>
      </trkpt>
      <trkpt lat="50.55157" lon="3.55116">
        <ele>43.099553</ele>
        <time>2019-09-17T13:46:42.196Z</time>
      </trkpt>
      <trkpt lat="50.55145" lon="3.55144">
        <ele>43.185494</ele>
        <time>2019-09-17T13:46:47.409Z</time>
      </trkpt>
      <trkpt lat="50.55108" lon="3.55228">
        <ele>43.164476</ele>
        <time>2019-09-17T13:47:02.585Z</time>
      </trkpt>
      <trkpt lat="50.55094" lon="3.55255">
        <ele>43.02367</ele>
        <time>2019-09-17T13:47:07.702Z</time>
      </trkpt>
      <trkpt lat="50.55001" lon="3.55282">
        <ele>42.411228</ele>
        <time>2019-09-17T13:47:28.200Z</time>
      </trkpt>
      <trkpt lat="50.54849" lon="3.5518">
        <ele>41.292495</ele>
        <time>2019-09-17T13:48:02.236Z</time>
      </trkpt>
      <trkpt lat="50.54693" lon="3.55074">
        <ele>41.479398</ele>
        <time>2019-09-17T13:48:44.724Z</time>
      </trkpt>
      <trkpt lat="50.54689" lon="3.55072">
        <ele>41.497555</ele>
        <time>2019-09-17T13:48:45.857Z</time>
      </trkpt>
      <trkpt lat="50.54665" lon="3.55052">
        <ele>41.622944</ele>
        <time>2019-09-17T13:48:53.837Z</time>
      </trkpt>
      <trkpt lat="50.54639" lon="3.55029">
        <ele>41.759066</ele>
        <time>2019-09-17T13:49:02.531Z</time>
      </trkpt>
      <trkpt lat="50.54611" lon="3.54994">
        <ele>42.187632</ele>
        <time>2019-09-17T13:49:13.452Z</time>
      </trkpt>
      <trkpt lat="50.54548" lon="3.54956">
        <ele>42.991114</ele>
        <time>2019-09-17T13:49:34.579Z</time>
      </trkpt>
      <trkpt lat="50.54492" lon="3.54932">
        <ele>43.682648</ele>
        <time>2019-09-17T13:49:51.988Z</time>
      </trkpt>
      <trkpt lat="50.54428" lon="3.54902">
        <ele>44.253243</ele>
        <time>2019-09-17T13:50:11.045Z</time>
      </trkpt>
      <trkpt lat="50.54348" lon="3.54866">
        <ele>44.839253</ele>
        <time>2019-09-17T13:50:33.708Z</time>
      </trkpt>
      <trkpt lat="50.54316" lon="3.54851">
        <ele>45.077408</ele>
        <time>2019-09-17T13:50:42.677Z</time>
      </trkpt>
      <trkpt lat="50.54293" lon="3.54836">
        <ele>45.263242</ele>
        <time>2019-09-17T13:50:49.836Z</time>
      </trkpt>
      <trkpt lat="50.5425" lon="3.54789">
        <ele>45.652608</ele>
        <time>2019-09-17T13:51:03.654Z</time>
      </trkpt>
      <trkpt lat="50.54189" lon="3.54724">
        <ele>46.19437</ele>
        <time>2019-09-17T13:51:24.028Z</time>
      </trkpt>
      <trkpt lat="50.54183" lon="3.54702">
        <ele>46.308094</ele>
        <time>2019-09-17T13:51:28.668Z</time>
      </trkpt>
      <trkpt lat="50.54148" lon="3.54582">
        <ele>46.871957</ele>
        <time>2019-09-17T13:51:52.511Z</time>
      </trkpt>
      <trkpt lat="50.54141" lon="3.5453">
        <ele>47.087958</ele>
        <time>2019-09-17T13:52:02.146Z</time>
      </trkpt>
      <trkpt lat="50.54138" lon="3.54508">
        <ele>47.181932</ele>
        <time>2019-09-17T13:52:06.400Z</time>
      </trkpt>
      <trkpt lat="50.54133" lon="3.54488">
        <ele>47.268258</ele>
        <time>2019-09-17T13:52:10.241Z</time>
      </trkpt>
      <trkpt lat="50.54113" lon="3.54448">
        <ele>47.475001</ele>
        <time>2019-09-17T13:52:18.925Z</time>
      </trkpt>
      <trkpt lat="50.54093" lon="3.54426">
        <ele>47.632869</ele>
        <time>2019-09-17T13:52:25.405Z</time>
      </trkpt>
      <trkpt lat="50.54011" lon="3.54358">
        <ele>47.103195</ele>
        <time>2019-09-17T13:52:47.321Z</time>
      </trkpt>
      <trkpt lat="50.53985" lon="3.54339">
        <ele>46.916109</ele>
        <time>2019-09-17T13:52:53.389Z</time>
      </trkpt>
      <trkpt lat="50.53958" lon="3.54335">
        <ele>46.736995</ele>
        <time>2019-09-17T13:52:59.024Z</time>
      </trkpt>
      <trkpt lat="50.53932" lon="3.54346">
        <ele>46.56218</ele>
        <time>2019-09-17T13:53:04.467Z</time>
      </trkpt>
      <trkpt lat="50.53806" lon="3.54383">
        <ele>44.474946</ele>
        <time>2019-09-17T13:53:29.241Z</time>
      </trkpt>
      <trkpt lat="50.53683" lon="3.5442">
        <ele>42.494528</ele>
        <time>2019-09-17T13:53:53.179Z</time>
      </trkpt>
      <trkpt lat="50.53569" lon="3.54336">
        <ele>40.689335</ele>
        <time>2019-09-17T13:54:18.450Z</time>
      </trkpt>
      <trkpt lat="50.53466" lon="3.54251">
        <ele>39.51821</ele>
        <time>2019-09-17T13:54:42.503Z</time>
      </trkpt>
      <trkpt lat="50.53452" lon="3.54235">
        <ele>39.346747</ele>
        <time>2019-09-17T13:54:46.112Z</time>
      </trkpt>
      <trkpt lat="50.53424" lon="3.54177">
        <ele>38.925166</ele>
        <time>2019-09-17T13:54:56.012Z</time>
      </trkpt>
      <trkpt lat="50.5338" lon="3.53948">
        <ele>38.1686</ele>
        <time>2019-09-17T13:55:30.147Z</time>
      </trkpt>
      <trkpt lat="50.53363" lon="3.53717">
        <ele>37.590479</ele>
        <time>2019-09-17T13:56:04.159Z</time>
      </trkpt>
      <trkpt lat="50.53338" lon="3.536">
        <ele>37.196412</ele>
        <time>2019-09-17T13:56:21.735Z</time>
      </trkpt>
      <trkpt lat="50.53181" lon="3.53222">
        <ele>35.035959</ele>
        <time>2019-09-17T13:57:23.069Z</time>
      </trkpt>
      <trkpt lat="50.53094" lon="3.52967">
        <ele>33.78817</ele>
        <time>2019-09-17T13:58:02.821Z</time>
      </trkpt>
      <trkpt lat="50.53077" lon="3.52917">
        <ele>33.551386</ele>
        <time>2019-09-17T13:58:10.975Z</time>
      </trkpt>
      <trkpt lat="50.53069" lon="3.52893">
        <ele>33.503085</ele>
        <time>2019-09-17T13:58:14.707Z</time>
      </trkpt>
      <trkpt lat="50.53059" lon="3.5286">
        <ele>33.471348</ele>
        <time>2019-09-17T13:58:20.095Z</time>
      </trkpt>
      <trkpt lat="50.53055" lon="3.5285">
        <ele>33.461039</ele>
        <time>2019-09-17T13:58:21.788Z</time>
      </trkpt>
      <trkpt lat="50.53039" lon="3.52801">
        <ele>33.41383</ele>
        <time>2019-09-17T13:58:29.887Z</time>
      </trkpt>
      <trkpt lat="50.5297" lon="3.52582">
        <ele>33.352181</ele>
        <time>2019-09-17T13:59:08.433Z</time>
      </trkpt>
      <trkpt lat="50.53017" lon="3.52536">
        <ele>33.430505</ele>
        <time>2019-09-17T13:59:19.259Z</time>
      </trkpt>
      <trkpt lat="50.53087" lon="3.52472">
        <ele>33.522273</ele>
        <time>2019-09-17T13:59:34.027Z</time>
      </trkpt>
      <trkpt lat="50.53075" lon="3.524">
        <ele>33.481158</ele>
        <time>2019-09-17T13:59:45.262Z</time>
      </trkpt>
      <trkpt lat="50.53069" lon="3.52383">
        <ele>33.470292</ele>
        <time>2019-09-17T13:59:48.090Z</time>
      </trkpt>
      <trkpt lat="50.53017" lon="3.52251">
        <ele>33.384347</ele>
        <time>2019-09-17T14:00:11.757Z</time>
      </trkpt>
      <trkpt lat="50.53004" lon="3.52202">
        <ele>33.423774</ele>
        <time>2019-09-17T14:00:19.693Z</time>
      </trkpt>
      <trkpt lat="50.53008" lon="3.52185">
        <ele>33.448419</ele>
        <time>2019-09-17T14:00:22.244Z</time>
      </trkpt>
      <trkpt lat="50.53009" lon="3.5217">
        <ele>33.470225</ele>
        <time>2019-09-17T14:00:24.607Z</time>
      </trkpt>
      <trkpt lat="50.53012" lon="3.52147">
        <ele>33.502658</ele>
        <time>2019-09-17T14:00:27.903Z</time>
      </trkpt>
      <trkpt lat="50.53017" lon="3.52125">
        <ele>33.536498</ele>
        <time>2019-09-17T14:00:31.768Z</time>
      </trkpt>
      <trkpt lat="50.5303" lon="3.52086">
        <ele>33.598983</ele>
        <time>2019-09-17T14:00:38.818Z</time>
      </trkpt>
      <trkpt lat="50.53034" lon="3.52074">
        <ele>33.61699</ele>
        <time>2019-09-17T14:00:41.052Z</time>
      </trkpt>
      <trkpt lat="50.5306" lon="3.5203">
        <ele>33.702578</ele>
        <time>2019-09-17T14:00:51.366Z</time>
      </trkpt>
      <trkpt lat="50.53079" lon="3.52013">
        <ele>33.751345</ele>
        <time>2019-09-17T14:00:57.261Z</time>
      </trkpt>
      <trkpt lat="50.53109" lon="3.51998">
        <ele>33.824936</ele>
        <time>2019-09-17T14:01:05.931Z</time>
      </trkpt>
      <trkpt lat="50.53098" lon="3.5196">
        <ele>33.888753</ele>
        <time>2019-09-17T14:01:13.381Z</time>
      </trkpt>
      <trkpt lat="50.53098" lon="3.51957">
        <ele>33.892388</ele>
        <time>2019-09-17T14:01:13.756Z</time>
      </trkpt>
      <trkpt lat="50.5309" lon="3.51933">
        <ele>33.932721</ele>
        <time>2019-09-17T14:01:18.146Z</time>
      </trkpt>
      <trkpt lat="50.5309" lon="3.51932">
        <ele>33.935052</ele>
        <time>2019-09-17T14:01:18.404Z</time>
      </trkpt>
      <trkpt lat="50.53085" lon="3.51914">
        <ele>33.96474</ele>
        <time>2019-09-17T14:01:21.666Z</time>
      </trkpt>
      <trkpt lat="50.53083" lon="3.51907">
        <ele>33.976083</ele>
        <time>2019-09-17T14:01:22.820Z</time>
      </trkpt>
      <trkpt lat="50.53076" lon="3.51886">
        <ele>34.012926</ele>
        <time>2019-09-17T14:01:26.573Z</time>
      </trkpt>
      <trkpt lat="50.53075" lon="3.51882">
        <ele>34.018991</ele>
        <time>2019-09-17T14:01:27.243Z</time>
      </trkpt>
      <trkpt lat="50.53058" lon="3.51826">
        <ele>34.113191</ele>
        <time>2019-09-17T14:01:36.838Z</time>
      </trkpt>
      <trkpt lat="50.5305" lon="3.5183">
        <ele>34.133143</ele>
        <time>2019-09-17T14:01:38.879Z</time>
      </trkpt>
      <trkpt lat="50.5304" lon="3.51833">
        <ele>34.158725</ele>
        <time>2019-09-17T14:01:41.422Z</time>
      </trkpt>
      <trkpt lat="50.53017" lon="3.51852">
        <ele>34.187249</ele>
        <time>2019-09-17T14:01:47.948Z</time>
      </trkpt>
      <trkpt lat="50.52951" lon="3.51909">
        <ele>34.028772</ele>
        <time>2019-09-17T14:02:05.458Z</time>
      </trkpt>
      <trkpt lat="50.52925" lon="3.51854">
        <ele>33.937573</ele>
        <time>2019-09-17T14:02:15.288Z</time>
      </trkpt>
      <trkpt lat="50.52908" lon="3.518">
        <ele>33.857342</ele>
        <time>2019-09-17T14:02:24.158Z</time>
      </trkpt>
      <trkpt lat="50.52879" lon="3.51748">
        <ele>34.027801</ele>
        <time>2019-09-17T14:02:34.634Z</time>
      </trkpt>
      <trkpt lat="50.52867" lon="3.51709">
        <ele>34.216552</ele>
        <time>2019-09-17T14:02:41.179Z</time>
      </trkpt>
      <trkpt lat="50.52842" lon="3.51636">
        <ele>34.584484</ele>
        <time>2019-09-17T14:02:55.926Z</time>
      </trkpt>
      <trkpt lat="50.52842" lon="3.51636">
        <ele>34.584484</ele>
        <time>2019-09-17T14:02:55.961Z</time>
      </trkpt>
      <trkpt lat="50.52842" lon="3.51636">
        <ele>34.584484</ele>
        <time>2019-09-17T14:02:55.964Z</time>
      </trkpt>
      <trkpt lat="50.5284" lon="3.51629">
        <ele>34.617787</ele>
        <time>2019-09-17T14:02:57.454Z</time>
      </trkpt>
      <trkpt lat="50.52822" lon="3.51588">
        <ele>34.835196</ele>
        <time>2019-09-17T14:03:07.521Z</time>
      </trkpt>
      <trkpt lat="50.52783" lon="3.5152">
        <ele>35.221525</ele>
        <time>2019-09-17T14:03:25.663Z</time>
      </trkpt>
      <trkpt lat="50.5277" lon="3.51505">
        <ele>35.314874</ele>
        <time>2019-09-17T14:03:30.288Z</time>
      </trkpt>
      <trkpt lat="50.52729" lon="3.51449">
        <ele>35.640036</ele>
        <time>2019-09-17T14:03:45.445Z</time>
      </trkpt>
      <trkpt lat="50.52719" lon="3.51437">
        <ele>35.715059</ele>
        <time>2019-09-17T14:03:48.180Z</time>
      </trkpt>
      <trkpt lat="50.52719" lon="3.51437">
        <ele>35.715059</ele>
        <time>2019-09-17T14:03:48.232Z</time>
      </trkpt>
      <trkpt lat="50.52714" lon="3.51431">
        <ele>35.755058</ele>
        <time>2019-09-17T14:03:49.928Z</time>
      </trkpt>
      <trkpt lat="50.52706" lon="3.5142">
        <ele>35.815454</ele>
        <time>2019-09-17T14:03:52.869Z</time>
      </trkpt>
      <trkpt lat="50.52722" lon="3.51393">
        <ele>35.952059</ele>
        <time>2019-09-17T14:03:58.174Z</time>
      </trkpt>
      <trkpt lat="50.5276" lon="3.51331">
        <ele>36.162752</ele>
        <time>2019-09-17T14:04:12.569Z</time>
      </trkpt>
      <trkpt lat="50.52789" lon="3.51285">
        <ele>36.183962</ele>
        <time>2019-09-17T14:04:22.115Z</time>
      </trkpt>
      <trkpt lat="50.52799" lon="3.51269">
        <ele>36.191379</ele>
        <time>2019-09-17T14:04:25.295Z</time>
      </trkpt>
      <trkpt lat="50.52867" lon="3.51134">
        <ele>36.348639</ele>
        <time>2019-09-17T14:04:50.390Z</time>
      </trkpt>
      <trkpt lat="50.52966" lon="3.50894">
        <ele>39.46552</ele>
        <time>2019-09-17T14:05:51.884Z</time>
      </trkpt>
      <trkpt lat="50.52998" lon="3.50805">
        <ele>40.965106</ele>
        <time>2019-09-17T14:06:15.741Z</time>
      </trkpt>
      <trkpt lat="50.53015" lon="3.50751">
        <ele>41.842493</ele>
        <time>2019-09-17T14:06:29.531Z</time>
      </trkpt>
      <trkpt lat="50.53061" lon="3.50585">
        <ele>43.938963</ele>
        <time>2019-09-17T14:07:09.527Z</time>
      </trkpt>
      <trkpt lat="50.53077" lon="3.50493">
        <ele>44.6058</ele>
        <time>2019-09-17T14:07:27.817Z</time>
      </trkpt>
      <trkpt lat="50.53063" lon="3.50413">
        <ele>45.191067</ele>
        <time>2019-09-17T14:07:43.253Z</time>
      </trkpt>
      <trkpt lat="50.53014" lon="3.50277">
        <ele>44.478549</ele>
        <time>2019-09-17T14:08:05.427Z</time>
      </trkpt>
      <trkpt lat="50.53009" lon="3.50267">
        <ele>44.388623</ele>
        <time>2019-09-17T14:08:07.095Z</time>
      </trkpt>
      <trkpt lat="50.53005" lon="3.50257">
        <ele>44.298105</ele>
        <time>2019-09-17T14:08:08.658Z</time>
      </trkpt>
      <trkpt lat="50.52993" lon="3.50234">
        <ele>44.086339</ele>
        <time>2019-09-17T14:08:12.121Z</time>
      </trkpt>
      <trkpt lat="50.52963" lon="3.50179">
        <ele>43.552</ele>
        <time>2019-09-17T14:08:18.338Z</time>
      </trkpt>
      <trkpt lat="50.52955" lon="3.50169">
        <ele>43.436276</ele>
        <time>2019-09-17T14:08:19.683Z</time>
      </trkpt>
      <trkpt lat="50.52947" lon="3.5016">
        <ele>43.318842</ele>
        <time>2019-09-17T14:08:20.898Z</time>
      </trkpt>
      <trkpt lat="50.52899" lon="3.50114">
        <ele>41.978152</ele>
        <time>2019-09-17T14:08:28.113Z</time>
      </trkpt>
      <trkpt lat="50.52877" lon="3.50086">
        <ele>41.303799</ele>
        <time>2019-09-17T14:08:31.596Z</time>
      </trkpt>
      <trkpt lat="50.52862" lon="3.50053">
        <ele>40.677894</ele>
        <time>2019-09-17T14:08:34.828Z</time>
      </trkpt>
      <trkpt lat="50.52823" lon="3.49916">
        <ele>38.73079</ele>
        <time>2019-09-17T14:08:47.191Z</time>
      </trkpt>
      <trkpt lat="50.52816" lon="3.49901">
        <ele>38.59763</ele>
        <time>2019-09-17T14:08:48.851Z</time>
      </trkpt>
      <trkpt lat="50.52782" lon="3.49813">
        <ele>37.857761</ele>
        <time>2019-09-17T14:08:58.390Z</time>
      </trkpt>
      <trkpt lat="50.52741" lon="3.4971">
        <ele>37.001476</ele>
        <time>2019-09-17T14:09:10.195Z</time>
      </trkpt>
      <trkpt lat="50.5273" lon="3.49651">
        <ele>37.031487</ele>
        <time>2019-09-17T14:09:16.660Z</time>
      </trkpt>
      <trkpt lat="50.52721" lon="3.49559">
        <ele>37.077146</ele>
        <time>2019-09-17T14:09:27.102Z</time>
      </trkpt>
      <trkpt lat="50.52714" lon="3.49533">
        <ele>37.091474</ele>
        <time>2019-09-17T14:09:30.432Z</time>
      </trkpt>
      <trkpt lat="50.52712" lon="3.49529">
        <ele>37.093878</ele>
        <time>2019-09-17T14:09:31.118Z</time>
      </trkpt>
      <trkpt lat="50.52677" lon="3.49452">
        <ele>37.150541</ele>
        <time>2019-09-17T14:09:42.918Z</time>
      </trkpt>
      <trkpt lat="50.52627" lon="3.49401">
        <ele>38.017072</ele>
        <time>2019-09-17T14:09:56.152Z</time>
      </trkpt>
      <trkpt lat="50.52606" lon="3.49393">
        <ele>38.333043</ele>
        <time>2019-09-17T14:10:01.342Z</time>
      </trkpt>
      <trkpt lat="50.5252" lon="3.49298">
        <ele>39.835043</ele>
        <time>2019-09-17T14:10:29.595Z</time>
      </trkpt>
      <trkpt lat="50.52518" lon="3.49297">
        <ele>39.863421</ele>
        <time>2019-09-17T14:10:30.653Z</time>
      </trkpt>
      <trkpt lat="50.52468" lon="3.49266">
        <ele>40.458591</ele>
        <time>2019-09-17T14:10:45.872Z</time>
      </trkpt>
      <trkpt lat="50.52437" lon="3.49238">
        <ele>40.852704</ele>
        <time>2019-09-17T14:10:55.492Z</time>
      </trkpt>
      <trkpt lat="50.524" lon="3.49201">
        <ele>41.328017</ele>
        <time>2019-09-17T14:11:06.409Z</time>
      </trkpt>
      <trkpt lat="50.5212" lon="3.50308">
        <ele>31.709355</ele>
        <time>2019-09-17T14:12:52.471Z</time>
      </trkpt>
      <trkpt lat="50.5208" lon="3.5027">
        <ele>31.012589</ele>
        <time>2019-09-17T14:13:01.560Z</time>
      </trkpt>
      <trkpt lat="50.51998" lon="3.50182">
        <ele>29.548335</ele>
        <time>2019-09-17T14:13:21.041Z</time>
      </trkpt>
      <trkpt lat="50.51944" lon="3.50099">
        <ele>28.668951</ele>
        <time>2019-09-17T14:13:36.536Z</time>
      </trkpt>
      <trkpt lat="50.51919" lon="3.50084">
        <ele>28.426721</ele>
        <time>2019-09-17T14:13:42.062Z</time>
      </trkpt>
      <trkpt lat="50.51831" lon="3.50116">
        <ele>27.590777</ele>
        <time>2019-09-17T14:14:01.331Z</time>
      </trkpt>
      <trkpt lat="50.51737" lon="3.50105">
        <ele>27.004384</ele>
        <time>2019-09-17T14:14:21.853Z</time>
      </trkpt>
      <trkpt lat="50.51703" lon="3.50087">
        <ele>26.808695</ele>
        <time>2019-09-17T14:14:29.833Z</time>
      </trkpt>
      <trkpt lat="50.51699" lon="3.50081">
        <ele>26.778724</ele>
        <time>2019-09-17T14:14:30.990Z</time>
      </trkpt>
      <trkpt lat="50.51699" lon="3.50068">
        <ele>26.736585</ele>
        <time>2019-09-17T14:14:32.627Z</time>
      </trkpt>
      <trkpt lat="50.51701" lon="3.5002">
        <ele>26.570905</ele>
        <time>2019-09-17T14:14:39.661Z</time>
      </trkpt>
      <trkpt lat="50.51683" lon="3.49975">
        <ele>26.401284</ele>
        <time>2019-09-17T14:14:47.543Z</time>
      </trkpt>
      <trkpt lat="50.51668" lon="3.49964">
        <ele>26.341184</ele>
        <time>2019-09-17T14:14:51.340Z</time>
      </trkpt>
      <trkpt lat="50.51651" lon="3.49965">
        <ele>26.276358</ele>
        <time>2019-09-17T14:14:55.365Z</time>
      </trkpt>
      <trkpt lat="50.51614" lon="3.4998">
        <ele>26.138608</ele>
        <time>2019-09-17T14:15:03.809Z</time>
      </trkpt>
      <trkpt lat="50.51534" lon="3.50031">
        <ele>25.823732</ele>
        <time>2019-09-17T14:15:23.573Z</time>
      </trkpt>
      <trkpt lat="50.51493" lon="3.50033">
        <ele>25.607852</ele>
        <time>2019-09-17T14:15:32.799Z</time>
      </trkpt>
      <trkpt lat="50.51403" lon="3.50027">
        <ele>25.067999</ele>
        <time>2019-09-17T14:15:52.525Z</time>
      </trkpt>
      <trkpt lat="50.51388" lon="3.50031">
        <ele>24.976635</ele>
        <time>2019-09-17T14:15:55.814Z</time>
      </trkpt>
      <trkpt lat="50.51365" lon="3.50016">
        <ele>24.830066</ele>
        <time>2019-09-17T14:15:59.488Z</time>
      </trkpt>
      <trkpt lat="50.51349" lon="3.49997">
        <ele>24.709432</ele>
        <time>2019-09-17T14:16:02.607Z</time>
      </trkpt>
      <trkpt lat="50.51329" lon="3.49959">
        <ele>24.530774</ele>
        <time>2019-09-17T14:16:07.679Z</time>
      </trkpt>
      <trkpt lat="50.51322" lon="3.49943">
        <ele>24.46499</ele>
        <time>2019-09-17T14:16:09.507Z</time>
      </trkpt>
      <trkpt lat="50.51323" lon="3.49797">
        <ele>23.949591</ele>
        <time>2019-09-17T14:16:24.479Z</time>
      </trkpt>
      <trkpt lat="50.51322" lon="3.49739">
        <ele>23.744805</ele>
        <time>2019-09-17T14:16:30.375Z</time>
      </trkpt>
      <trkpt lat="50.51308" lon="3.49699">
        <ele>23.534375</ele>
        <time>2019-09-17T14:16:34.793Z</time>
      </trkpt>
      <trkpt lat="50.5129" lon="3.49667">
        <ele>23.317666</ele>
        <time>2019-09-17T14:16:38.971Z</time>
      </trkpt>
      <trkpt lat="50.51284" lon="3.49655">
        <ele>23.233107</ele>
        <time>2019-09-17T14:16:40.542Z</time>
      </trkpt>
      <trkpt lat="50.51281" lon="3.49649">
        <ele>23.196955</ele>
        <time>2019-09-17T14:16:41.169Z</time>
      </trkpt>
      <trkpt lat="50.51271" lon="3.4958">
        <ele>22.833022</ele>
        <time>2019-09-17T14:16:48.023Z</time>
      </trkpt>
      <trkpt lat="50.51269" lon="3.49574">
        <ele>22.795341</ele>
        <time>2019-09-17T14:16:48.712Z</time>
      </trkpt>
      <trkpt lat="50.51219" lon="3.4955">
        <ele>22.372255</ele>
        <time>2019-09-17T14:16:56.492Z</time>
      </trkpt>
      <trkpt lat="50.51187" lon="3.49526">
        <ele>22.138173</ele>
        <time>2019-09-17T14:17:01.639Z</time>
      </trkpt>
      <trkpt lat="50.51182" lon="3.49523">
        <ele>22.107024</ele>
        <time>2019-09-17T14:17:02.392Z</time>
      </trkpt>
      <trkpt lat="50.51121" lon="3.49492">
        <ele>21.748471</ele>
        <time>2019-09-17T14:17:11.917Z</time>
      </trkpt>
      <trkpt lat="50.51048" lon="3.49357">
        <ele>21.360739</ele>
        <time>2019-09-17T14:17:30.844Z</time>
      </trkpt>
      <trkpt lat="50.51039" lon="3.49338">
        <ele>21.443862</ele>
        <time>2019-09-17T14:17:33.705Z</time>
      </trkpt>
      <trkpt lat="50.5104" lon="3.49284">
        <ele>21.634898</ele>
        <time>2019-09-17T14:17:40.556Z</time>
      </trkpt>
      <trkpt lat="50.51084" lon="3.49038">
        <ele>22.594493</ele>
        <time>2019-09-17T14:18:16.554Z</time>
      </trkpt>
      <trkpt lat="50.5114" lon="3.48908">
        <ele>23.267002</ele>
        <time>2019-09-17T14:18:38.199Z</time>
      </trkpt>
      <trkpt lat="50.51144" lon="3.48878">
        <ele>23.395427</ele>
        <time>2019-09-17T14:18:41.528Z</time>
      </trkpt>
      <trkpt lat="50.5114" lon="3.48867">
        <ele>23.435794</ele>
        <time>2019-09-17T14:18:43.379Z</time>
      </trkpt>
      <trkpt lat="50.51135" lon="3.4885">
        <ele>23.384586</ele>
        <time>2019-09-17T14:18:45.488Z</time>
      </trkpt>
      <trkpt lat="50.51113" lon="3.48814">
        <ele>23.251853</ele>
        <time>2019-09-17T14:18:51.321Z</time>
      </trkpt>
      <trkpt lat="50.51096" lon="3.4873">
        <ele>23.017796</ele>
        <time>2019-09-17T14:19:00.224Z</time>
      </trkpt>
      <trkpt lat="50.5108" lon="3.48708">
        <ele>22.926641</ele>
        <time>2019-09-17T14:19:03.615Z</time>
      </trkpt>
      <trkpt lat="50.51065" lon="3.48691">
        <ele>22.851524</ele>
        <time>2019-09-17T14:19:06.334Z</time>
      </trkpt>
      <trkpt lat="50.51084" lon="3.48625">
        <ele>22.645401</ele>
        <time>2019-09-17T14:19:13.116Z</time>
      </trkpt>
      <trkpt lat="50.51087" lon="3.48604">
        <ele>22.557009</ele>
        <time>2019-09-17T14:19:15.073Z</time>
      </trkpt>
      <trkpt lat="50.51082" lon="3.48534">
        <ele>22.269348</ele>
        <time>2019-09-17T14:19:21.821Z</time>
      </trkpt>
      <trkpt lat="50.5108" lon="3.48506">
        <ele>22.155163</ele>
        <time>2019-09-17T14:19:24.550Z</time>
      </trkpt>
      <trkpt lat="50.51082" lon="3.4846">
        <ele>21.966108</ele>
        <time>2019-09-17T14:19:29.128Z</time>
      </trkpt>
      <trkpt lat="50.51087" lon="3.48377">
        <ele>21.625692</ele>
        <time>2019-09-17T14:19:37.542Z</time>
      </trkpt>
      <trkpt lat="50.51092" lon="3.48355">
        <ele>21.532245</ele>
        <time>2019-09-17T14:19:40.109Z</time>
      </trkpt>
      <trkpt lat="50.511" lon="3.48334">
        <ele>21.52694</ele>
        <time>2019-09-17T14:19:42.572Z</time>
      </trkpt>
      <trkpt lat="50.5112" lon="3.48278">
        <ele>21.512473</ele>
        <time>2019-09-17T14:19:49.801Z</time>
      </trkpt>
      <trkpt lat="50.5113" lon="3.48251">
        <ele>21.505331</ele>
        <time>2019-09-17T14:19:53.725Z</time>
      </trkpt>
      <trkpt lat="50.51135" lon="3.48237">
        <ele>21.501883</ele>
        <time>2019-09-17T14:19:55.462Z</time>
      </trkpt>
      <trkpt lat="50.51143" lon="3.48169">
        <ele>21.486389</ele>
        <time>2019-09-17T14:20:03.412Z</time>
      </trkpt>
      <trkpt lat="50.51138" lon="3.48111">
        <ele>21.473268</ele>
        <time>2019-09-17T14:20:10.118Z</time>
      </trkpt>
      <trkpt lat="50.51132" lon="3.48019">
        <ele>21.483453</ele>
        <time>2019-09-17T14:20:20.547Z</time>
      </trkpt>
      <trkpt lat="50.51129" lon="3.48001">
        <ele>21.487088</ele>
        <time>2019-09-17T14:20:22.413Z</time>
      </trkpt>
      <trkpt lat="50.51125" lon="3.47964">
        <ele>21.494469</ele>
        <time>2019-09-17T14:20:26.876Z</time>
      </trkpt>
      <trkpt lat="50.51122" lon="3.47856">
        <ele>21.515702</ele>
        <time>2019-09-17T14:20:39.358Z</time>
      </trkpt>
      <trkpt lat="50.51109" lon="3.47824">
        <ele>21.523192</ele>
        <time>2019-09-17T14:20:43.504Z</time>
      </trkpt>
      <trkpt lat="50.5109" lon="3.47798">
        <ele>21.620008</ele>
        <time>2019-09-17T14:20:48.349Z</time>
      </trkpt>
      <trkpt lat="50.51082" lon="3.47786">
        <ele>21.672302</ele>
        <time>2019-09-17T14:20:50.249Z</time>
      </trkpt>
      <trkpt lat="50.5108" lon="3.47774">
        <ele>21.707319</ele>
        <time>2019-09-17T14:20:52.021Z</time>
      </trkpt>
      <trkpt lat="50.51104" lon="3.47687">
        <ele>21.986831</ele>
        <time>2019-09-17T14:21:03.864Z</time>
      </trkpt>
      <trkpt lat="50.51109" lon="3.47654">
        <ele>22.086256</ele>
        <time>2019-09-17T14:21:08.505Z</time>
      </trkpt>
      <trkpt lat="50.5111" lon="3.47622">
        <ele>22.178801</ele>
        <time>2019-09-17T14:21:12.490Z</time>
      </trkpt>
      <trkpt lat="50.51104" lon="3.47596">
        <ele>22.261113</ele>
        <time>2019-09-17T14:21:16.440Z</time>
      </trkpt>
      <trkpt lat="50.51082" lon="3.4755">
        <ele>22.444641</ele>
        <time>2019-09-17T14:21:24.245Z</time>
      </trkpt>
      <trkpt lat="50.51016" lon="3.47475">
        <ele>22.891247</ele>
        <time>2019-09-17T14:21:41.104Z</time>
      </trkpt>
      <trkpt lat="50.51006" lon="3.47445">
        <ele>23.010682</ele>
        <time>2019-09-17T14:21:45.354Z</time>
      </trkpt>
      <trkpt lat="50.51065" lon="3.47278">
        <ele>23.601636</ele>
        <time>2019-09-17T14:22:09.430Z</time>
      </trkpt>
      <trkpt lat="50.51066" lon="3.47262">
        <ele>23.645486</ele>
        <time>2019-09-17T14:22:11.465Z</time>
      </trkpt>
      <trkpt lat="50.51059" lon="3.47247">
        <ele>23.69652</ele>
        <time>2019-09-17T14:22:13.867Z</time>
      </trkpt>
      <trkpt lat="50.51052" lon="3.47236">
        <ele>23.736642</ele>
        <time>2019-09-17T14:22:15.736Z</time>
      </trkpt>
      <trkpt lat="50.50985" lon="3.47169">
        <ele>24.072189</ele>
        <time>2019-09-17T14:22:31.656Z</time>
      </trkpt>
      <trkpt lat="50.50936" lon="3.47116">
        <ele>24.363806</ele>
        <time>2019-09-17T14:22:43.591Z</time>
      </trkpt>
      <trkpt lat="50.50899" lon="3.47062">
        <ele>24.616672</ele>
        <time>2019-09-17T14:22:53.957Z</time>
      </trkpt>
      <trkpt lat="50.50871" lon="3.47017">
        <ele>24.814579</ele>
        <time>2019-09-17T14:23:01.991Z</time>
      </trkpt>
      <trkpt lat="50.5085" lon="3.46978">
        <ele>24.976404</ele>
        <time>2019-09-17T14:23:08.509Z</time>
      </trkpt>
      <trkpt lat="50.5084" lon="3.46941">
        <ele>25.037921</ele>
        <time>2019-09-17T14:23:13.707Z</time>
      </trkpt>
      <trkpt lat="50.50837" lon="3.46857">
        <ele>25.125382</ele>
        <time>2019-09-17T14:23:24.482Z</time>
      </trkpt>
      <trkpt lat="50.50831" lon="3.4684">
        <ele>25.146083</ele>
        <time>2019-09-17T14:23:26.849Z</time>
      </trkpt>
      <trkpt lat="50.50821" lon="3.46826">
        <ele>25.167578</ele>
        <time>2019-09-17T14:23:29.305Z</time>
      </trkpt>
      <trkpt lat="50.50778" lon="3.46766">
        <ele>25.262395</ele>
        <time>2019-09-17T14:23:39.535Z</time>
      </trkpt>
      <trkpt lat="50.50735" lon="3.46707">
        <ele>25.042751</ele>
        <time>2019-09-17T14:23:49.111Z</time>
      </trkpt>
      <trkpt lat="50.50708" lon="3.46672">
        <ele>24.773859</ele>
        <time>2019-09-17T14:23:54.693Z</time>
      </trkpt>
      <trkpt lat="50.50681" lon="3.46651">
        <ele>24.544205</ele>
        <time>2019-09-17T14:23:59.259Z</time>
      </trkpt>
      <trkpt lat="50.50523" lon="3.46572">
        <ele>22.975843</ele>
        <time>2019-09-17T14:24:23.098Z</time>
      </trkpt>
      <trkpt lat="50.50405" lon="3.46483">
        <ele>21.917619</ele>
        <time>2019-09-17T14:24:42.044Z</time>
      </trkpt>
      <trkpt lat="50.50361" lon="3.46454">
        <ele>21.917619</ele>
        <time>2019-09-17T14:24:49.479Z</time>
      </trkpt>
      <trkpt lat="50.5034" lon="3.46438">
        <ele>21.917619</ele>
        <time>2019-09-17T14:24:53.116Z</time>
      </trkpt>
      <trkpt lat="50.50316" lon="3.46422">
        <ele>21.917619</ele>
        <time>2019-09-17T14:24:57.404Z</time>
      </trkpt>
      <trkpt lat="50.50313" lon="3.46411">
        <ele>21.917619</ele>
        <time>2019-09-17T14:24:58.581Z</time>
      </trkpt>
      <trkpt lat="50.50317" lon="3.46374">
        <ele>21.917619</ele>
        <time>2019-09-17T14:25:02.539Z</time>
      </trkpt>
      <trkpt lat="50.50321" lon="3.46347">
        <ele>21.917619</ele>
        <time>2019-09-17T14:25:05.430Z</time>
      </trkpt>
    </trkseg>
  </trk>
</gpx>